| time (UTC) | temp F | wind direction | speed MPH | gust MPH | rain 1hr in | rain 24hr in | rain mn in | humidity % | barometer mb |
| 20260831132419 | 74 | 300 | 1.0 | 2.0 | 0.00 | 0.02 | 0.00 | 74 | 1022.2 |
| 20260831132331 | 74 | 299 | 1.0 | 2.0 | 0.00 | 0.02 | 0.00 | 76 | 1022.3 |
| 20260831132226 | 74 | 301 | 1.0 | 2.0 | 0.00 | 0.02 | 0.00 | 76 | 1022.2 |
| 20260831132142 | 74 | 306 | 0.0 | 1.0 | 0.00 | 0.02 | 0.00 | 77 | 1022.1 |
| 20260831132017 | 74 | 0.0 | 0.0 | 0.00 | 0.02 | 0.00 | 76 | 1022.1 | |
| 20260831131929 | 74 | 306 | 0.0 | 1.0 | 0.00 | 0.02 | 0.00 | 76 | 1022.0 |
| 20260831131824 | 74 | 307 | 0.0 | 1.0 | 0.00 | 0.02 | 0.00 | 75 | 1021.9 |
| 20260831131720 | 74 | 306 | 0.0 | 1.0 | 0.00 | 0.02 | 0.00 | 76 | 1021.9 |
| 20260831131616 | 74 | 0.0 | 0.0 | 0.00 | 0.02 | 0.00 | 77 | 1022.1 | |
| 20260831131527 | 73 | 0.0 | 0.0 | 0.00 | 0.02 | 0.00 | 77 | 1022.1 | |
| 20260831131423 | 73 | 0.0 | 0.0 | 0.00 | 0.02 | 0.00 | 76 | 1022.1 | |
| 20260831131318 | 73 | 0.0 | 0.0 | 0.00 | 0.02 | 0.00 | 76 | 1022.1 | |
| 20260831131230 | 73 | 0.0 | 0.0 | 0.00 | 0.02 | 0.00 | 76 | 1022.1 | |
| 20260831131126 | 73 | 0.0 | 0.0 | 0.00 | 0.02 | 0.00 | 76 | 1022.2 | |
| 20260831131021 | 73 | 0.0 | 0.0 | 0.00 | 0.02 | 0.00 | 75 | 1022.3 | |
| 20260831130917 | 73 | 305 | 1.0 | 2.0 | 0.00 | 0.02 | 0.00 | 74 | 1022.2 |
| 20260831130828 | 73 | 303 | 2.0 | 3.0 | 0.00 | 0.02 | 0.00 | 75 | 1022.1 |
| 20260831130804 | 73 | 295 | 1.0 | 3.0 | 0.00 | 0.02 | 0.00 | 76 | 1022.3 |
| 20260831130619 | 73 | 304 | 0.0 | 1.0 | 0.00 | 0.02 | 0.00 | 76 | 1022.1 |
| 20260831130515 | 73 | 304 | 1.0 | 1.0 | 0.00 | 0.02 | 0.00 | 76 | 1022.2 |
| 20260831130427 | 73 | 304 | 0.0 | 1.0 | 0.00 | 0.02 | 0.00 | 76 | 1022.2 |
| 20260831130402 | 73 | 303 | 1.0 | 2.0 | 0.00 | 0.02 | 0.00 | 76 | 1022.1 |
| 20260831130238 | 73 | 314 | 3.0 | 4.0 | 0.00 | 0.02 | 0.00 | 77 | 1022.1 |
| 20260831130129 | 73 | 321 | 2.0 | 3.0 | 0.00 | 0.02 | 0.00 | 77 | 1022.1 |
| 20260831130025 | 73 | 299 | 1.0 | 2.0 | 0.00 | 0.02 | 0.00 | 77 | 1022.2 |
| 20260831125920 | 73 | 300 | 0.0 | 1.0 | 0.00 | 0.02 | 0.00 | 78 | 1022.2 |
| 20260831125815 | 73 | 0.0 | 0.0 | 0.00 | 0.02 | 0.00 | 78 | 1022.1 | |
| 20260831125727 | 73 | 0.0 | 0.0 | 0.00 | 0.02 | 0.00 | 78 | 1022.1 | |
| 20260831125622 | 73 | 300 | 1.0 | 1.0 | 0.00 | 0.02 | 0.00 | 78 | 1022.1 |
| 20260831125518 | 73 | 300 | 1.0 | 2.0 | 0.00 | 0.02 | 0.00 | 77 | 1022.4 |
| 20260831125429 | 73 | 300 | 1.0 | 2.0 | 0.00 | 0.02 | 0.00 | 77 | 1022.3 |
| 20260831125325 | 73 | 301 | 2.0 | 3.0 | 0.00 | 0.02 | 0.00 | 78 | 1022.3 |
| 20260831125221 | 73 | 303 | 1.0 | 2.0 | 0.00 | 0.02 | 0.00 | 77 | 1022.2 |
| 20260831125116 | 72 | 307 | 1.0 | 3.0 | 0.00 | 0.02 | 0.00 | 78 | 1022.1 |
| 20260831125028 | 72 | 290 | 0.0 | 1.0 | 0.00 | 0.02 | 0.00 | 78 | 1022.1 |
| 20260831124923 | 72 | 290 | 0.0 | 1.0 | 0.00 | 0.02 | 0.00 | 78 | 1021.9 |
| 20260831124819 | 72 | 290 | 1.0 | 1.0 | 0.00 | 0.02 | 0.00 | 77 | 1022.2 |
| 20260831124730 | 72 | 293 | 2.0 | 3.0 | 0.00 | 0.02 | 0.00 | 78 | 1022.1 |
| 20260831124706 | 72 | 302 | 0.0 | 1.0 | 0.00 | 0.02 | 0.00 | 78 | 1022.0 |
| 20260831124521 | 72 | 302 | 2.0 | 3.0 | 0.00 | 0.02 | 0.00 | 79 | 1022.1 |
| 20260831124417 | 72 | 313 | 1.0 | 2.0 | 0.00 | 0.02 | 0.00 | 79 | 1022.1 |
| 20260831124329 | 72 | 314 | 1.0 | 2.0 | 0.00 | 0.02 | 0.00 | 79 | 1022.2 |
| 20260831124225 | 72 | 0.0 | 0.0 | 0.00 | 0.02 | 0.00 | 79 | 1022.2 | |
| 20260831124120 | 72 | 0.0 | 0.0 | 0.00 | 0.02 | 0.00 | 79 | 1022.2 | |
| 20260831124016 | 72 | 0.0 | 0.0 | 0.00 | 0.02 | 0.00 | 79 | 1022.1 | |
| 20260831123927 | 72 | 320 | 0.0 | 1.0 | 0.00 | 0.02 | 0.00 | 79 | 1022.1 |
| 20260831123822 | 72 | 320 | 0.0 | 1.0 | 0.00 | 0.02 | 0.00 | 79 | 1022.1 |
| 20260831123718 | 72 | 320 | 0.0 | 1.0 | 0.00 | 0.02 | 0.00 | 79 | 1022.1 |
| 20260831123630 | 71 | 322 | 1.0 | 2.0 | 0.00 | 0.02 | 0.00 | 79 | 1022.1 |
| 20260831123525 | 71 | 326 | 1.0 | 2.0 | 0.00 | 0.02 | 0.00 | 79 | 1022.1 |
| 20260831123421 | 71 | 326 | 1.0 | 1.0 | 0.00 | 0.02 | 0.00 | 79 | 1022.1 |
| 20260831123316 | 71 | 326 | 1.0 | 1.0 | 0.00 | 0.02 | 0.00 | 79 | 1022.1 |
| 20260831123228 | 71 | 326 | 0.0 | 1.0 | 0.00 | 0.02 | 0.00 | 79 | 1022.3 |
| 20260831123123 | 71 | 326 | 1.0 | 2.0 | 0.00 | 0.02 | 0.00 | 79 | 1022.2 |
| 20260831123019 | 71 | 334 | 1.0 | 2.0 | 0.00 | 0.02 | 0.00 | 78 | 1022.2 |
| 20260831122931 | 71 | 334 | 1.0 | 2.0 | 0.00 | 0.02 | 0.00 | 79 | 1022.2 |
| 20260831122826 | 71 | 0.0 | 0.0 | 0.00 | 0.02 | 0.00 | 79 | 1022.2 | |
| 20260831122722 | 71 | 336 | 0.0 | 2.0 | 0.00 | 0.02 | 0.00 | 79 | 1022.2 |
| 20260831122618 | 71 | 331 | 1.0 | 3.0 | 0.00 | 0.02 | 0.00 | 80 | 1022.3 |
| 20260831122529 | 71 | 316 | 0.0 | 1.0 | 0.00 | 0.02 | 0.00 | 80 | 1022.1 |
| 20260831122425 | 71 | 315 | 0.0 | 1.0 | 0.00 | 0.02 | 0.00 | 80 | 1022.2 |
| 20260831122321 | 71 | 0.0 | 0.0 | 0.00 | 0.02 | 0.00 | 80 | 1022.2 | |
| 20260831122216 | 71 | 316 | 1.0 | 2.0 | 0.00 | 0.02 | 0.00 | 80 | 1022.2 |
| 20260831122128 | 71 | 0.0 | 0.0 | 0.00 | 0.02 | 0.00 | 80 | 1022.0 | |
| 20260831122023 | 71 | 315 | 0.0 | 1.0 | 0.00 | 0.02 | 0.00 | 80 | 1022.0 |
| 20260831121919 | 71 | 315 | 1.0 | 2.0 | 0.00 | 0.02 | 0.00 | 80 | 1022.0 |
| 20260831121831 | 71 | 315 | 0.0 | 1.0 | 0.00 | 0.02 | 0.00 | 80 | 1022.2 |
| 20260831121746 | 71 | 0.0 | 0.0 | 0.00 | 0.02 | 0.00 | 80 | 1022.0 | |
| 20260831121622 | 71 | 0.0 | 0.0 | 0.00 | 0.02 | 0.00 | 80 | 1021.9 | |
| 20260831121538 | 71 | 0.0 | 0.0 | 0.00 | 0.02 | 0.00 | 80 | 1022.0 | |
| 20260831121449 | 71 | 0.0 | 0.0 | 0.00 | 0.02 | 0.00 | 80 | 1022.1 | |
| 20260831121345 | 71 | 0.0 | 0.0 | 0.00 | 0.02 | 0.00 | 80 | 1022.0 | |
| 20260831121220 | 71 | 0.0 | 0.0 | 0.00 | 0.02 | 0.00 | 80 | 1021.9 | |
| 20260831121116 | 71 | 0.0 | 0.0 | 0.00 | 0.02 | 0.00 | 80 | 1022.0 | |
| 20260831121027 | 71 | 0.0 | 0.0 | 0.00 | 0.02 | 0.00 | 80 | 1022.2 | |
| 20260831120923 | 71 | 0.0 | 0.0 | 0.00 | 0.02 | 0.00 | 80 | 1022.0 | |
| 20260831120819 | 71 | 0.0 | 0.0 | 0.00 | 0.02 | 0.00 | 80 | 1021.9 | |
| 20260831120730 | 71 | 315 | 0.0 | 1.0 | 0.00 | 0.02 | 0.00 | 80 | 1022.2 |
| 20260831120626 | 71 | 315 | 1.0 | 1.0 | 0.00 | 0.02 | 0.00 | 80 | 1021.9 |
| 20260831120521 | 71 | 315 | 0.0 | 1.0 | 0.00 | 0.02 | 0.00 | 80 | 1022.1 |
| 20260831120437 | 71 | 0.0 | 0.0 | 0.00 | 0.02 | 0.00 | 80 | 1021.8 | |
| 20260831120329 | 71 | 0.0 | 0.0 | 0.00 | 0.02 | 0.00 | 80 | 1021.9 | |
| 20260831120224 | 71 | 315 | 1.0 | 1.0 | 0.00 | 0.02 | 0.00 | 80 | 1021.9 |
| 20260831120120 | 71 | 315 | 1.0 | 2.0 | 0.00 | 0.02 | 0.00 | 80 | 1022.0 |
| 20260831120016 | 71 | 315 | 1.0 | 2.0 | 0.00 | 0.02 | 0.00 | 80 | 1022.1 |
| 20260831115927 | 70 | 0.0 | 0.0 | 0.00 | 0.02 | 0.00 | 80 | 1022.1 | |
| 20260831115823 | 70 | 316 | 0.0 | 1.0 | 0.00 | 0.02 | 0.00 | 80 | 1022.1 |
| 20260831115719 | 70 | 316 | 1.0 | 1.0 | 0.00 | 0.02 | 0.00 | 80 | 1022.1 |
| 20260831115630 | 70 | 316 | 1.0 | 2.0 | 0.00 | 0.02 | 0.00 | 80 | 1022.0 |
| 20260831115546 | 70 | 316 | 1.0 | 2.0 | 0.00 | 0.02 | 0.00 | 81 | 1022.0 |
| 20260831115441 | 70 | 307 | 2.0 | 2.0 | 0.00 | 0.02 | 0.00 | 81 | 1022.0 |
| 20260831115317 | 70 | 298 | 1.0 | 2.0 | 0.00 | 0.02 | 0.00 | 81 | 1022.2 |
| 20260831115228 | 70 | 293 | 1.0 | 2.0 | 0.00 | 0.02 | 0.00 | 81 | 1022.0 |
| 20260831115124 | 70 | 293 | 1.0 | 1.0 | 0.00 | 0.02 | 0.00 | 81 | 1022.0 |
| 20260831115020 | 70 | 293 | 0.0 | 1.0 | 0.00 | 0.02 | 0.00 | 81 | 1022.0 |
| 20260831114916 | 70 | 293 | 0.0 | 1.0 | 0.00 | 0.02 | 0.00 | 81 | 1021.8 |
| 20260831114827 | 70 | 0.0 | 0.0 | 0.00 | 0.02 | 0.00 | 81 | 1022.0 | |
| 20260831114723 | 70 | 293 | 0.0 | 1.0 | 0.00 | 0.02 | 0.00 | 81 | 1021.9 |
| 20260831114619 | 70 | 293 | 0.0 | 1.0 | 0.00 | 0.02 | 0.00 | 81 | 1021.9 |
| 20260831114530 | 70 | 293 | 0.0 | 1.0 | 0.00 | 0.02 | 0.00 | 81 | 1021.7 |
| 20260831114425 | 69 | 293 | 0.0 | 1.0 | 0.00 | 0.02 | 0.00 | 82 | 1021.9 |
| 20260831114321 | 69 | 0.0 | 0.0 | 0.00 | 0.02 | 0.00 | 82 | 1022.0 | |
| 20260831114236 | 69 | 293 | 1.0 | 1.0 | 0.00 | 0.02 | 0.00 | 82 | 1021.8 |
| 20260831114128 | 69 | 293 | 1.0 | 2.0 | 0.00 | 0.02 | 0.00 | 82 | 1021.9 |
| 20260831114044 | 69 | 293 | 1.0 | 2.0 | 0.00 | 0.02 | 0.00 | 82 | 1021.9 |
| 20260831113919 | 69 | 293 | 1.0 | 2.0 | 0.00 | 0.02 | 0.00 | 82 | 1021.9 |
| 20260831113831 | 69 | 293 | 0.0 | 1.0 | 0.00 | 0.02 | 0.00 | 82 | 1021.8 |
| 20260831113727 | 69 | 293 | 1.0 | 1.0 | 0.00 | 0.02 | 0.00 | 82 | 1021.7 |
| 20260831113622 | 69 | 293 | 1.0 | 1.0 | 0.00 | 0.02 | 0.00 | 82 | 1021.7 |
| 20260831113518 | 69 | 293 | 0.0 | 1.0 | 0.00 | 0.02 | 0.00 | 82 | 1021.7 |
| 20260831113450 | 69 | 0.0 | 0.0 | 0.00 | 0.02 | 0.00 | 81 | 1021.7 | |
| 20260831113325 | 69 | 0.0 | 0.0 | 0.00 | 0.02 | 0.00 | 81 | 1021.7 | |
| 20260831113241 | 69 | 0.0 | 0.0 | 0.00 | 0.02 | 0.00 | 82 | 1021.8 | |
| 20260831113116 | 69 | 0.0 | 0.0 | 0.00 | 0.02 | 0.00 | 82 | 1021.8 | |
| 20260831113028 | 69 | 293 | 1.0 | 1.0 | 0.00 | 0.02 | 0.00 | 81 | 1021.6 |
| 20260831112923 | 69 | 0.0 | 0.0 | 0.00 | 0.02 | 0.00 | 81 | 1021.6 | |
| 20260831112819 | 69 | 293 | 0.0 | 1.0 | 0.00 | 0.02 | 0.00 | 81 | 1021.6 |
| 20260831112730 | 69 | 293 | 0.0 | 1.0 | 0.00 | 0.02 | 0.00 | 81 | 1021.7 |
| 20260831112626 | 69 | 0.0 | 0.0 | 0.00 | 0.02 | 0.00 | 81 | 1021.7 | |
| 20260831112542 | 69 | 0.0 | 0.0 | 0.00 | 0.02 | 0.00 | 81 | 1021.6 | |
| 20260831112437 | 69 | 293 | 0.0 | 1.0 | 0.00 | 0.02 | 0.00 | 80 | 1021.6 |
| 20260831112329 | 69 | 0.0 | 0.0 | 0.00 | 0.02 | 0.00 | 80 | 1021.5 | |
| 20260831112225 | 69 | 0.0 | 0.0 | 0.00 | 0.02 | 0.00 | 80 | 1021.5 | |
| 20260831112121 | 69 | 0.0 | 0.0 | 0.00 | 0.02 | 0.00 | 80 | 1021.5 | |
| 20260831112016 | 69 | 0.0 | 0.0 | 0.00 | 0.02 | 0.00 | 80 | 1021.5 | |
| 20260831111928 | 69 | 0.0 | 0.0 | 0.00 | 0.02 | 0.00 | 81 | 1021.7 | |
| 20260831111823 | 69 | 0.0 | 0.0 | 0.00 | 0.02 | 0.00 | 80 | 1021.5 | |
| 20260831111739 | 69 | 0.0 | 0.0 | 0.00 | 0.02 | 0.00 | 80 | 1021.6 | |
| 20260831111630 | 69 | 0.0 | 0.0 | 0.00 | 0.02 | 0.00 | 81 | 1021.4 | |
| 20260831111526 | 69 | 0.0 | 0.0 | 0.00 | 0.02 | 0.00 | 81 | 1021.7 | |
| 20260831111442 | 69 | 0.0 | 0.0 | 0.00 | 0.02 | 0.00 | 81 | 1021.5 | |
| 20260831111317 | 69 | 0.0 | 0.0 | 0.00 | 0.02 | 0.00 | 81 | 1021.5 | |
| 20260831111229 | 69 | 0.0 | 0.0 | 0.00 | 0.02 | 0.00 | 81 | 1021.5 | |
| 20260831111145 | 69 | 0.0 | 0.0 | 0.00 | 0.02 | 0.00 | 81 | 1021.5 | |
| 20260831111020 | 69 | 293 | 0.0 | 1.0 | 0.00 | 0.02 | 0.00 | 82 | 1021.5 |
| 20260831110916 | 68 | 293 | 1.0 | 1.0 | 0.00 | 0.02 | 0.00 | 82 | 1021.6 |
| 20260831110827 | 68 | 293 | 1.0 | 1.0 | 0.00 | 0.02 | 0.00 | 81 | 1021.5 |
| 20260831110723 | 68 | 293 | 0.0 | 1.0 | 0.00 | 0.02 | 0.00 | 80 | 1021.5 |
| 20260831110619 | 68 | 293 | 0.0 | 1.0 | 0.00 | 0.02 | 0.00 | 80 | 1021.5 |
| 20260831110531 | 68 | 0.0 | 0.0 | 0.00 | 0.02 | 0.00 | 80 | 1021.6 | |
| 20260831110446 | 68 | 0.0 | 0.0 | 0.00 | 0.02 | 0.00 | 80 | 1021.5 | |
| 20260831110322 | 68 | 0.0 | 0.0 | 0.00 | 0.02 | 0.00 | 80 | 1021.6 | |
| 20260831110217 | 68 | 0.0 | 0.0 | 0.00 | 0.02 | 0.00 | 80 | 1021.9 | |
| 20260831110129 | 68 | 0.0 | 0.0 | 0.00 | 0.02 | 0.00 | 80 | 1021.7 | |
| 20260831110044 | 68 | 0.0 | 0.0 | 0.00 | 0.02 | 0.00 | 80 | 1021.7 | |
| 20260831105920 | 68 | 0.0 | 0.0 | 0.00 | 0.02 | 0.00 | 80 | 1021.8 | |
| 20260831105816 | 68 | 0.0 | 0.0 | 0.00 | 0.02 | 0.00 | 80 | 1021.7 | |
| 20260831105727 | 68 | 0.0 | 0.0 | 0.00 | 0.02 | 0.00 | 80 | 1021.6 | |
| 20260831105623 | 68 | 0.0 | 0.0 | 0.00 | 0.02 | 0.00 | 80 | 1021.5 | |
| 20260831105518 | 68 | 0.0 | 0.0 | 0.00 | 0.02 | 0.00 | 80 | 1021.5 | |
| 20260831105430 | 68 | 0.0 | 0.0 | 0.00 | 0.02 | 0.00 | 80 | 1021.5 | |
| 20260831105325 | 68 | 0.0 | 0.0 | 0.00 | 0.02 | 0.00 | 80 | 1021.5 | |
| 20260831105221 | 68 | 0.0 | 0.0 | 0.00 | 0.02 | 0.00 | 80 | 1021.6 | |
| 20260831105116 | 68 | 0.0 | 0.0 | 0.00 | 0.02 | 0.00 | 80 | 1021.5 | |
| 20260831105028 | 68 | 0.0 | 0.0 | 0.00 | 0.02 | 0.00 | 80 | 1021.6 | |
| 20260831104944 | 68 | 0.0 | 0.0 | 0.00 | 0.02 | 0.00 | 80 | 1021.7 | |
| 20260831104819 | 68 | 0.0 | 0.0 | 0.00 | 0.02 | 0.00 | 80 | 1021.7 | |
| 20260831104731 | 68 | 0.0 | 0.0 | 0.00 | 0.02 | 0.00 | 80 | 1021.5 | |
| 20260831104647 | 68 | 0.0 | 0.0 | 0.00 | 0.02 | 0.00 | 81 | 1021.3 | |
| 20260831104522 | 68 | 0.0 | 0.0 | 0.00 | 0.02 | 0.00 | 80 | 1021.4 | |
| 20260831104418 | 68 | 0.0 | 0.0 | 0.00 | 0.02 | 0.00 | 80 | 1021.4 | |
| 20260831104330 | 68 | 0.0 | 0.0 | 0.00 | 0.02 | 0.00 | 80 | 1021.4 | |
| 20260831104245 | 68 | 0.0 | 0.0 | 0.00 | 0.02 | 0.00 | 80 | 1021.4 | |
| 20260831104120 | 68 | 0.0 | 0.0 | 0.00 | 0.02 | 0.00 | 80 | 1021.6 | |
| 20260831104016 | 68 | 0.0 | 0.0 | 0.00 | 0.02 | 0.00 | 80 | 1021.4 | |
| 20260831103928 | 68 | 0.0 | 0.0 | 0.00 | 0.02 | 0.00 | 80 | 1021.6 | |
| 20260831103843 | 68 | 0.0 | 0.0 | 0.00 | 0.02 | 0.00 | 80 | 1021.5 | |
| 20260831103719 | 68 | 293 | 0.0 | 1.0 | 0.00 | 0.02 | 0.00 | 80 | 1021.7 |
| 20260831103631 | 68 | 0.0 | 0.0 | 0.00 | 0.02 | 0.00 | 80 | 1021.7 | |
| 20260831103526 | 68 | 0.0 | 0.0 | 0.00 | 0.02 | 0.00 | 80 | 1021.7 | |
| 20260831103442 | 68 | 0.0 | 0.0 | 0.00 | 0.02 | 0.00 | 80 | 1021.6 | |
| 20260831103337 | 68 | 0.0 | 0.0 | 0.00 | 0.02 | 0.00 | 80 | 1021.6 | |
| 20260831103229 | 69 | 0.0 | 0.0 | 0.00 | 0.02 | 0.00 | 80 | 1021.6 | |
| 20260831103124 | 69 | 0.0 | 0.0 | 0.00 | 0.02 | 0.00 | 80 | 1021.6 | |
| 20260831103020 | 69 | 0.0 | 0.0 | 0.00 | 0.02 | 0.00 | 80 | 1021.6 | |
| 20260831102915 | 69 | 0.0 | 0.0 | 0.00 | 0.02 | 0.00 | 80 | 1021.5 | |
| 20260831102828 | 68 | 0.0 | 0.0 | 0.00 | 0.02 | 0.00 | 81 | 1021.5 | |
| 20260831102723 | 68 | 293 | 0.0 | 1.0 | 0.00 | 0.02 | 0.00 | 81 | 1021.6 |
| 20260831102618 | 69 | 293 | 0.0 | 1.0 | 0.00 | 0.02 | 0.00 | 81 | 1021.6 |
| 20260831102530 | 68 | 0.0 | 0.0 | 0.00 | 0.02 | 0.00 | 80 | 1021.4 | |
| 20260831102446 | 68 | 0.0 | 0.0 | 0.00 | 0.02 | 0.00 | 81 | 1021.3 | |
| 20260831102341 | 68 | 295 | 1.0 | 1.0 | 0.00 | 0.02 | 0.00 | 81 | 1021.4 |
| 20260831102217 | 68 | 295 | 0.0 | 1.0 | 0.00 | 0.02 | 0.00 | 81 | 1021.3 |
| 20260831102128 | 68 | 295 | 1.0 | 2.0 | 0.00 | 0.02 | 0.00 | 81 | 1021.3 |
| 20260831102024 | 68 | 302 | 1.0 | 3.0 | 0.00 | 0.02 | 0.00 | 81 | 1021.2 |
| 20260831101920 | 68 | 0.0 | 0.0 | 0.00 | 0.02 | 0.00 | 80 | 1021.2 | |
| 20260831101827 | 68 | 306 | 1.0 | 2.0 | 0.00 | 0.02 | 0.00 | 80 | 1021.4 |
| 20260831101622 | 68 | 312 | 0.0 | 1.0 | 0.00 | 0.02 | 0.00 | 80 | 1021.1 |
| 20260831101518 | 68 | 0.0 | 0.0 | 0.00 | 0.02 | 0.00 | 79 | 1021.3 | |
| 20260831101430 | 68 | 0.0 | 0.0 | 0.00 | 0.02 | 0.00 | 79 | 1021.0 | |
| 20260831101325 | 68 | 0.0 | 0.0 | 0.00 | 0.02 | 0.00 | 79 | 1021.2 | |
| 20260831101221 | 68 | 0.0 | 0.0 | 0.00 | 0.02 | 0.00 | 79 | 1021.2 | |
| 20260831101117 | 68 | 0.0 | 0.0 | 0.00 | 0.02 | 0.00 | 79 | 1021.1 | |
| 20260831101028 | 69 | 0.0 | 0.0 | 0.00 | 0.02 | 0.00 | 79 | 1021.0 | |
| 20260831100944 | 69 | 0.0 | 0.0 | 0.00 | 0.02 | 0.00 | 79 | 1020.8 | |
| 20260831100819 | 69 | 0.0 | 0.0 | 0.00 | 0.02 | 0.00 | 79 | 1020.7 | |
| 20260831100731 | 69 | 0.0 | 0.0 | 0.00 | 0.02 | 0.00 | 79 | 1021.0 | |
| 20260831100626 | 69 | 0.0 | 0.0 | 0.00 | 0.02 | 0.00 | 79 | 1021.0 | |
| 20260831100522 | 69 | 0.0 | 0.0 | 0.00 | 0.02 | 0.00 | 79 | 1020.9 | |
| 20260831100417 | 69 | 0.0 | 0.0 | 0.00 | 0.02 | 0.00 | 79 | 1021.0 | |
| 20260831100329 | 69 | 0.0 | 0.0 | 0.00 | 0.02 | 0.00 | 79 | 1021.0 | |
| 20260831100225 | 69 | 0.0 | 0.0 | 0.00 | 0.02 | 0.00 | 79 | 1020.8 | |
| 20260831100140 | 69 | 0.0 | 0.0 | 0.00 | 0.02 | 0.00 | 79 | 1020.9 | |
| 20260831100016 | 69 | 0.0 | 0.0 | 0.00 | 0.02 | 0.00 | 79 | 1020.8 | |
| 20260831095927 | 69 | 0.0 | 0.0 | 0.00 | 0.02 | 0.00 | 79 | 1021.0 | |
| 20260831095842 | 69 | 0.0 | 0.0 | 0.00 | 0.02 | 0.00 | 79 | 1020.9 | |
| 20260831095718 | 69 | 0.0 | 0.0 | 0.00 | 0.02 | 0.00 | 79 | 1020.9 | |
| 20260831095630 | 69 | 0.0 | 0.0 | 0.00 | 0.02 | 0.00 | 79 | 1020.7 | |
| 20260831095525 | 69 | 0.0 | 0.0 | 0.00 | 0.02 | 0.00 | 79 | 1020.9 | |
| 20260831095421 | 69 | 0.0 | 0.0 | 0.00 | 0.02 | 0.00 | 79 | 1021.0 | |
| 20260831095317 | 69 | 0.0 | 0.0 | 0.00 | 0.02 | 0.00 | 79 | 1021.1 | |
| 20260831095228 | 69 | 0.0 | 0.0 | 0.00 | 0.02 | 0.00 | 79 | 1021.0 | |
| 20260831095124 | 69 | 0.0 | 0.0 | 0.00 | 0.02 | 0.00 | 80 | 1020.9 | |
| 20260831095020 | 69 | 0.0 | 0.0 | 0.00 | 0.02 | 0.00 | 80 | 1020.9 | |
| 20260831094915 | 69 | 0.0 | 0.0 | 0.00 | 0.02 | 0.00 | 80 | 1021.0 | |
| 20260831094846 | 69 | 0.0 | 0.0 | 0.00 | 0.02 | 0.00 | 80 | 1020.9 | |
| 20260831094722 | 69 | 0.0 | 0.0 | 0.00 | 0.02 | 0.00 | 79 | 1020.7 | |
| 20260831094618 | 69 | 0.0 | 0.0 | 0.00 | 0.02 | 0.00 | 79 | 1020.9 | |
| 20260831094549 | 69 | 0.0 | 0.0 | 0.00 | 0.02 | 0.00 | 79 | 1020.8 | |
| 20260831094425 | 69 | 312 | 0.0 | 1.0 | 0.00 | 0.02 | 0.00 | 80 | 1020.8 |
| 20260831094320 | 69 | 312 | 0.0 | 1.0 | 0.00 | 0.02 | 0.00 | 80 | 1021.0 |
| 20260831094216 | 69 | 312 | 0.0 | 1.0 | 0.00 | 0.02 | 0.00 | 80 | 1020.7 |
| 20260831094128 | 69 | 312 | 1.0 | 1.0 | 0.00 | 0.02 | 0.00 | 80 | 1020.8 |
| 20260831094023 | 69 | 312 | 0.0 | 1.0 | 0.00 | 0.02 | 0.00 | 79 | 1020.7 |
| 20260831093919 | 69 | 0.0 | 0.0 | 0.00 | 0.02 | 0.00 | 79 | 1020.9 | |
| 20260831093831 | 69 | 0.0 | 0.0 | 0.00 | 0.02 | 0.00 | 78 | 1020.9 | |
| 20260831093726 | 69 | 0.0 | 0.0 | 0.00 | 0.02 | 0.00 | 78 | 1020.6 | |
| 20260831093702 | 69 | 0.0 | 0.0 | 0.00 | 0.02 | 0.00 | 78 | 1020.8 | |
| 20260831093537 | 69 | 0.0 | 0.0 | 0.00 | 0.02 | 0.00 | 78 | 1020.9 | |
| 20260831093429 | 69 | 0.0 | 0.0 | 0.00 | 0.02 | 0.00 | 78 | 1020.6 | |
| 20260831093325 | 69 | 0.0 | 0.0 | 0.00 | 0.02 | 0.00 | 78 | 1020.7 | |
| 20260831093220 | 69 | 0.0 | 0.0 | 0.00 | 0.02 | 0.00 | 78 | 1020.7 | |
| 20260831093116 | 69 | 0.0 | 0.0 | 0.00 | 0.02 | 0.00 | 78 | 1020.8 | |
| 20260831093028 | 69 | 0.0 | 0.0 | 0.00 | 0.02 | 0.00 | 78 | 1020.5 | |
| 20260831092923 | 69 | 0.0 | 0.0 | 0.00 | 0.02 | 0.00 | 78 | 1020.7 | |
| 20260831092818 | 69 | 0.0 | 0.0 | 0.00 | 0.02 | 0.00 | 78 | 1020.7 | |
| 20260831092730 | 69 | 0.0 | 0.0 | 0.00 | 0.02 | 0.00 | 78 | 1020.6 | |
| 20260831092646 | 69 | 0.0 | 0.0 | 0.00 | 0.02 | 0.00 | 78 | 1020.6 | |
| 20260831092522 | 69 | 0.0 | 0.0 | 0.00 | 0.02 | 0.00 | 79 | 1020.7 | |
| 20260831092417 | 69 | 0.0 | 0.0 | 0.00 | 0.02 | 0.00 | 79 | 1020.7 | |
| 20260831092329 | 69 | 312 | 1.0 | 1.0 | 0.00 | 0.02 | 0.00 | 79 | 1020.6 |
| 20260831092245 | 69 | 312 | 1.0 | 1.0 | 0.00 | 0.02 | 0.00 | 79 | 1020.8 |
| 20260831092120 | 69 | 312 | 1.0 | 1.0 | 0.00 | 0.02 | 0.00 | 79 | 1020.8 |
| 20260831092032 | 69 | 312 | 0.0 | 1.0 | 0.00 | 0.02 | 0.00 | 78 | 1020.7 |
| 20260831091926 | 69 | 312 | 0.0 | 1.0 | 0.00 | 0.02 | 0.00 | 78 | 1020.7 |
| 20260831091822 | 69 | 312 | 0.0 | 1.0 | 0.00 | 0.02 | 0.00 | 78 | 1020.7 |
| 20260831091718 | 69 | 312 | 0.0 | 1.0 | 0.00 | 0.02 | 0.00 | 79 | 1020.6 |
| 20260831091649 | 69 | 312 | 1.0 | 1.0 | 0.00 | 0.02 | 0.00 | 78 | 1020.7 |
| 20260831091525 | 69 | 312 | 0.0 | 1.0 | 0.00 | 0.02 | 0.00 | 77 | 1020.7 |
| 20260831091421 | 69 | 0.0 | 0.0 | 0.00 | 0.02 | 0.00 | 77 | 1020.6 | |
| 20260831091316 | 69 | 0.0 | 0.0 | 0.00 | 0.02 | 0.00 | 77 | 1020.7 | |
| 20260831091228 | 69 | 0.0 | 0.0 | 0.00 | 0.02 | 0.00 | 77 | 1020.6 | |
| 20260831091123 | 70 | 0.0 | 0.0 | 0.00 | 0.02 | 0.00 | 77 | 1020.6 | |
| 20260831091019 | 70 | 0.0 | 0.0 | 0.00 | 0.02 | 0.00 | 77 | 1020.7 | |
| 20260831090950 | 70 | 0.0 | 0.0 | 0.00 | 0.02 | 0.00 | 78 | 1020.7 | |
| 20260831090906 | 70 | 0.0 | 0.0 | 0.00 | 0.02 | 0.00 | 77 | 1020.5 | |
| 20260831090721 | 70 | 312 | 0.0 | 1.0 | 0.00 | 0.02 | 0.00 | 78 | 1020.5 |
| 20260831090617 | 70 | 0.0 | 0.0 | 0.00 | 0.02 | 0.00 | 78 | 1020.7 | |
| 20260831090529 | 70 | 312 | 0.0 | 1.0 | 0.00 | 0.02 | 0.00 | 77 | 1020.6 |
| 20260831090424 | 70 | 312 | 0.0 | 1.0 | 0.00 | 0.02 | 0.00 | 77 | 1020.5 |
| 20260831090320 | 70 | 312 | 0.0 | 1.0 | 0.00 | 0.02 | 0.00 | 77 | 1020.7 |
| 20260831090236 | 70 | 312 | 0.0 | 1.0 | 0.00 | 0.02 | 0.00 | 77 | 1020.8 |
| 20260831090143 | 70 | 0.0 | 0.0 | 0.00 | 0.02 | 0.00 | 76 | 1020.5 | |
| 20260831085919 | 70 | 312 | 0.0 | 1.0 | 0.00 | 0.02 | 0.00 | 77 | 1020.8 |
| 20260831085830 | 70 | 0.0 | 0.0 | 0.00 | 0.02 | 0.00 | 77 | 1020.7 | |
| 20260831085742 | 70 | 0.0 | 0.0 | 0.00 | 0.02 | 0.00 | 77 | 1020.7 | |
| 20260831085517 | 70 | 0.0 | 0.0 | 0.00 | 0.02 | 0.00 | 77 | 1020.7 | |
| 20260831085429 | 70 | 0.0 | 0.0 | 0.00 | 0.02 | 0.00 | 76 | 1020.6 | |
| 20260831085324 | 70 | 0.0 | 0.0 | 0.00 | 0.02 | 0.00 | 76 | 1020.6 | |
| 20260831085220 | 70 | 0.0 | 0.0 | 0.00 | 0.02 | 0.00 | 76 | 1020.7 | |
| 20260831085116 | 70 | 311 | 0.0 | 1.0 | 0.00 | 0.02 | 0.00 | 76 | 1020.4 |
| 20260831085047 | 70 | 311 | 1.0 | 1.0 | 0.00 | 0.02 | 0.00 | 77 | 1020.5 |
| 20260831084923 | 70 | 311 | 1.0 | 2.0 | 0.00 | 0.02 | 0.00 | 77 | 1020.5 |
| 20260831084818 | 70 | 311 | 1.0 | 2.0 | 0.00 | 0.02 | 0.00 | 77 | 1020.5 |
| 20260831084730 | 70 | 0.0 | 0.0 | 0.00 | 0.02 | 0.00 | 76 | 1020.4 | |
| 20260831084626 | 70 | 312 | 0.0 | 1.0 | 0.00 | 0.02 | 0.00 | 76 | 1020.6 |
| 20260831084521 | 70 | 311 | 1.0 | 2.0 | 0.00 | 0.02 | 0.00 | 76 | 1020.6 |
| 20260831084437 | 70 | 312 | 1.0 | 2.0 | 0.00 | 0.02 | 0.00 | 76 | 1020.7 |
| 20260831084329 | 70 | 310 | 2.0 | 2.0 | 0.00 | 0.02 | 0.00 | 77 | 1020.5 |
| 20260831084224 | 70 | 311 | 2.0 | 2.0 | 0.00 | 0.02 | 0.00 | 77 | 1020.5 |
| 20260831084140 | 71 | 312 | 1.0 | 1.0 | 0.00 | 0.02 | 0.00 | 76 | 1020.6 |
| 20260831084015 | 71 | 0.0 | 0.0 | 0.00 | 0.02 | 0.00 | 76 | 1020.6 | |
| 20260831083927 | 71 | 0.0 | 0.0 | 0.00 | 0.02 | 0.00 | 76 | 1020.7 | |
| 20260831083823 | 71 | 312 | 0.0 | 1.0 | 0.00 | 0.02 | 0.00 | 76 | 1020.6 |
| 20260831083718 | 71 | 312 | 1.0 | 1.0 | 0.00 | 0.02 | 0.00 | 76 | 1020.6 |
| 20260831083630 | 71 | 312 | 1.0 | 1.0 | 0.00 | 0.02 | 0.00 | 76 | 1020.6 |
| 20260831083525 | 71 | 312 | 0.0 | 1.0 | 0.00 | 0.02 | 0.00 | 76 | 1020.6 |
| 20260831083421 | 71 | 311 | 0.0 | 1.0 | 0.00 | 0.02 | 0.00 | 75 | 1020.6 |
| 20260831083316 | 71 | 299 | 2.0 | 2.0 | 0.00 | 0.02 | 0.00 | 76 | 1020.5 |
| 20260831083228 | 71 | 279 | 1.0 | 1.0 | 0.00 | 0.02 | 0.00 | 76 | 1020.4 |
| 20260831083124 | 71 | 279 | 0.0 | 1.0 | 0.00 | 0.02 | 0.00 | 76 | 1020.4 |
| 20260831083019 | 71 | 279 | 1.0 | 2.0 | 0.00 | 0.02 | 0.00 | 76 | 1020.4 |
| 20260831082915 | 71 | 280 | 1.0 | 2.0 | 0.00 | 0.02 | 0.00 | 75 | 1020.5 |
| 20260831082847 | 71 | 280 | 0.0 | 1.0 | 0.00 | 0.02 | 0.00 | 75 | 1020.5 |
| 20260831082742 | 71 | 291 | 1.0 | 2.0 | 0.00 | 0.02 | 0.00 | 75 | 1020.6 |
| 20260831082638 | 71 | 302 | 0.0 | 1.0 | 0.00 | 0.02 | 0.00 | 75 | 1020.7 |
| 20260831082530 | 71 | 301 | 1.0 | 2.0 | 0.00 | 0.02 | 0.00 | 76 | 1020.9 |
| 20260831082425 | 71 | 304 | 2.0 | 2.0 | 0.00 | 0.02 | 0.00 | 76 | 1020.7 |
| 20260831082321 | 71 | 277 | 2.0 | 2.0 | 0.00 | 0.02 | 0.00 | 76 | 1020.9 |
| 20260831082216 | 71 | 275 | 1.0 | 1.0 | 0.00 | 0.02 | 0.00 | 76 | 1020.7 |
| 20260831082128 | 71 | 274 | 0.0 | 1.0 | 0.00 | 0.02 | 0.00 | 75 | 1020.7 |
| 20260831082024 | 71 | 268 | 0.0 | 1.0 | 0.00 | 0.02 | 0.00 | 75 | 1020.6 |
| 20260831081919 | 71 | 268 | 0.0 | 1.0 | 0.00 | 0.02 | 0.00 | 75 | 1020.6 |
| 20260831081831 | 71 | 268 | 2.0 | 2.0 | 0.00 | 0.02 | 0.00 | 75 | 1020.8 |
| 20260831081726 | 71 | 299 | 1.0 | 2.0 | 0.00 | 0.02 | 0.00 | 76 | 1020.6 |
| 20260831081622 | 71 | 305 | 1.0 | 2.0 | 0.00 | 0.02 | 0.00 | 76 | 1020.5 |
| 20260831081537 | 71 | 330 | 2.0 | 2.0 | 0.00 | 0.02 | 0.00 | 76 | 1020.5 |
| 20260831081429 | 71 | 331 | 1.0 | 2.0 | 0.00 | 0.02 | 0.00 | 76 | 1020.5 |
| 20260831081325 | 71 | 331 | 1.0 | 2.0 | 0.00 | 0.02 | 0.00 | 76 | 1020.6 |
| 20260831081220 | 71 | 329 | 3.0 | 4.0 | 0.00 | 0.02 | 0.00 | 76 | 1020.6 |
| 20260831081116 | 71 | 325 | 1.0 | 2.0 | 0.00 | 0.02 | 0.00 | 76 | 1020.8 |
| 20260831081047 | 71 | 321 | 2.0 | 3.0 | 0.00 | 0.02 | 0.00 | 76 | 1020.5 |
| 20260831080923 | 71 | 303 | 1.0 | 2.0 | 0.00 | 0.02 | 0.00 | 76 | 1020.6 |
| 20260831080819 | 71 | 313 | 1.0 | 2.0 | 0.00 | 0.02 | 0.00 | 76 | 1020.7 |
| 20260831080810 | 71 | 310 | 2.0 | 3.0 | 0.00 | 0.02 | 0.00 | 76 | 1020.6 |
| 20260831080626 | 71 | 299 | 1.0 | 2.0 | 0.00 | 0.02 | 0.00 | 76 | 1020.7 |
| 20260831080522 | 71 | 296 | 1.0 | 2.0 | 0.00 | 0.02 | 0.00 | 76 | 1020.6 |
| 20260831080417 | 71 | 308 | 2.0 | 3.0 | 0.00 | 0.02 | 0.00 | 75 | 1020.6 |
| 20260831080329 | 71 | 302 | 2.0 | 3.0 | 0.00 | 0.02 | 0.00 | 76 | 1020.6 |
| 20260831080225 | 71 | 294 | 3.0 | 3.0 | 0.00 | 0.02 | 0.00 | 76 | 1020.6 |
| 20260831080120 | 71 | 288 | 1.0 | 2.0 | 0.00 | 0.02 | 0.00 | 76 | 1020.6 |
| 20260831080016 | 71 | 287 | 0.0 | 1.0 | 0.00 | 0.02 | 0.00 | 76 | 1020.6 |
| 20260831075928 | 71 | 287 | 2.0 | 3.0 | 0.00 | 0.02 | 0.00 | 76 | 1020.5 |
| 20260831075823 | 71 | 308 | 1.0 | 1.0 | 0.00 | 0.02 | 0.00 | 76 | 1020.5 |
| 20260831075719 | 71 | 308 | 1.0 | 2.0 | 0.00 | 0.02 | 0.00 | 76 | 1020.5 |
| 20260831075631 | 71 | 309 | 1.0 | 2.0 | 0.00 | 0.02 | 0.00 | 76 | 1020.4 |
| 20260831075526 | 71 | 308 | 1.0 | 1.0 | 0.00 | 0.02 | 0.00 | 76 | 1020.3 |
| 20260831075422 | 71 | 308 | 1.0 | 2.0 | 0.00 | 0.02 | 0.00 | 76 | 1020.5 |
| 20260831075317 | 71 | 304 | 0.0 | 1.0 | 0.00 | 0.02 | 0.00 | 76 | 1020.4 |
| 20260831075229 | 71 | 305 | 2.0 | 3.0 | 0.00 | 0.02 | 0.00 | 76 | 1020.4 |
| 20260831075124 | 71 | 298 | 2.0 | 3.0 | 0.00 | 0.02 | 0.00 | 76 | 1020.6 |
| 20260831075020 | 71 | 298 | 1.0 | 2.0 | 0.00 | 0.02 | 0.00 | 76 | 1020.6 |
| 20260831074916 | 71 | 293 | 1.0 | 2.0 | 0.00 | 0.02 | 0.00 | 75 | 1020.6 |
| 20260831074828 | 71 | 307 | 1.0 | 2.0 | 0.00 | 0.02 | 0.00 | 76 | 1020.6 |
| 20260831074723 | 71 | 317 | 1.0 | 2.0 | 0.00 | 0.02 | 0.00 | 76 | 1020.5 |
| 20260831074618 | 71 | 318 | 1.0 | 2.0 | 0.00 | 0.02 | 0.00 | 76 | 1020.5 |
| 20260831074530 | 71 | 321 | 1.0 | 3.0 | 0.00 | 0.02 | 0.00 | 76 | 1020.5 |
| 20260831074426 | 71 | 323 | 1.0 | 2.0 | 0.00 | 0.02 | 0.00 | 76 | 1020.5 |
| 20260831074321 | 71 | 323 | 1.0 | 2.0 | 0.00 | 0.02 | 0.00 | 76 | 1020.4 |
| 20260831074217 | 71 | 324 | 2.0 | 3.0 | 0.00 | 0.02 | 0.00 | 76 | 1020.6 |
| 20260831074129 | 71 | 324 | 1.0 | 2.0 | 0.00 | 0.02 | 0.00 | 76 | 1020.5 |
| 20260831074024 | 71 | 324 | 1.0 | 2.0 | 0.00 | 0.02 | 0.00 | 76 | 1020.5 |
| 20260831073940 | 71 | 324 | 1.0 | 1.0 | 0.00 | 0.02 | 0.00 | 76 | 1020.5 |
| 20260831073816 | 71 | 324 | 1.0 | 2.0 | 0.00 | 0.02 | 0.00 | 76 | 1020.5 |
| 20260831073747 | 71 | 324 | 1.0 | 2.0 | 0.00 | 0.02 | 0.00 | 76 | 1020.5 |
| 20260831073643 | 71 | 324 | 2.0 | 2.0 | 0.00 | 0.02 | 0.00 | 76 | 1020.4 |
| 20260831073518 | 71 | 328 | 2.0 | 2.0 | 0.00 | 0.02 | 0.00 | 76 | 1020.6 |
| 20260831073430 | 71 | 348 | 1.0 | 2.0 | 0.00 | 0.02 | 0.00 | 76 | 1020.6 |
| 20260831073326 | 71 | 297 | 1.0 | 4.0 | 0.00 | 0.02 | 0.00 | 76 | 1020.5 |
| 20260831073221 | 71 | 302 | 1.0 | 1.0 | 0.00 | 0.02 | 0.00 | 76 | 1020.5 |
| 20260831073117 | 71 | 302 | 1.0 | 2.0 | 0.00 | 0.02 | 0.00 | 76 | 1020.5 |
| 20260831073029 | 71 | 305 | 0.0 | 1.0 | 0.00 | 0.02 | 0.00 | 76 | 1020.5 |
| 20260831072924 | 71 | 304 | 1.0 | 2.0 | 0.00 | 0.02 | 0.00 | 76 | 1020.6 |
| 20260831072839 | 71 | 302 | 1.0 | 1.0 | 0.00 | 0.02 | 0.00 | 76 | 1020.4 |
| 20260831072715 | 71 | 309 | 1.0 | 2.0 | 0.00 | 0.02 | 0.00 | 76 | 1020.6 |
| 20260831072627 | 71 | 299 | 1.0 | 2.0 | 0.00 | 0.02 | 0.00 | 76 | 1020.5 |
| 20260831072522 | 71 | 291 | 0.0 | 1.0 | 0.00 | 0.02 | 0.00 | 76 | 1020.6 |
| 20260831072438 | 71 | 291 | 1.0 | 3.0 | 0.00 | 0.02 | 0.00 | 77 | 1020.6 |
| 20260831072329 | 71 | 302 | 2.0 | 3.0 | 0.00 | 0.02 | 0.00 | 77 | 1020.5 |
| 20260831072225 | 71 | 295 | 2.0 | 3.0 | 0.00 | 0.02 | 0.00 | 77 | 1020.5 |
| 20260831072120 | 71 | 284 | 0.0 | 1.0 | 0.00 | 0.02 | 0.00 | 76 | 1020.5 |
| 20260831072016 | 71 | 283 | 1.0 | 1.0 | 0.00 | 0.02 | 0.00 | 76 | 1020.5 |
| 20260831071928 | 71 | 0.0 | 0.0 | 0.00 | 0.02 | 0.00 | 77 | 1020.6 | |
| 20260831071823 | 71 | 286 | 1.0 | 1.0 | 0.00 | 0.02 | 0.00 | 77 | 1020.5 |
| 20260831071719 | 71 | 284 | 0.0 | 1.0 | 0.00 | 0.02 | 0.00 | 77 | 1020.4 |
| 20260831071650 | 71 | 284 | 1.0 | 2.0 | 0.00 | 0.02 | 0.00 | 76 | 1020.6 |
| 20260831071526 | 71 | 283 | 1.0 | 2.0 | 0.00 | 0.02 | 0.00 | 76 | 1020.7 |
| 20260831071442 | 71 | 281 | 1.0 | 2.0 | 0.00 | 0.02 | 0.00 | 76 | 1020.6 |
| 20260831071337 | 71 | 327 | 0.0 | 1.0 | 0.00 | 0.02 | 0.00 | 77 | 1020.6 |
| 20260831071229 | 71 | 327 | 1.0 | 3.0 | 0.00 | 0.02 | 0.00 | 77 | 1020.5 |
| 20260831071124 | 71 | 326 | 1.0 | 1.0 | 0.00 | 0.02 | 0.00 | 77 | 1020.5 |
| 20260831071040 | 71 | 326 | 1.0 | 2.0 | 0.00 | 0.02 | 0.00 | 77 | 1020.5 |
| 20260831070916 | 71 | 327 | 0.0 | 1.0 | 0.00 | 0.02 | 0.00 | 77 | 1020.7 |
| 20260831070847 | 71 | 327 | 0.0 | 1.0 | 0.00 | 0.02 | 0.00 | 77 | 1020.5 |
| 20260831070722 | 71 | 329 | 1.0 | 3.0 | 0.00 | 0.02 | 0.00 | 77 | 1020.6 |
| 20260831070618 | 71 | 297 | 0.0 | 1.0 | 0.00 | 0.02 | 0.00 | 77 | 1020.7 |
| 20260831070530 | 71 | 296 | 0.0 | 1.0 | 0.00 | 0.02 | 0.00 | 77 | 1020.6 |
| 20260831070425 | 71 | 296 | 1.0 | 1.0 | 0.00 | 0.02 | 0.00 | 77 | 1020.6 |
| 20260831070321 | 71 | 296 | 1.0 | 2.0 | 0.00 | 0.02 | 0.00 | 77 | 1020.7 |
| 20260831070217 | 71 | 307 | 2.0 | 3.0 | 0.00 | 0.02 | 0.00 | 77 | 1020.6 |
| 20260831070128 | 71 | 345 | 0.0 | 1.0 | 0.00 | 0.02 | 0.00 | 77 | 1020.6 |
| 20260831070024 | 71 | 346 | 1.0 | 2.0 | 0.00 | 0.02 | 0.00 | 77 | 1020.6 |
| 20260831065939 | 71 | 345 | 1.0 | 3.0 | 0.00 | 0.02 | 0.00 | 77 | 1020.7 |
| 20260831065831 | 71 | 0.0 | 0.0 | 0.00 | 0.02 | 0.00 | 77 | 1020.6 | |
| 20260831065726 | 71 | 299 | 0.0 | 1.0 | 0.00 | 0.02 | 0.00 | 77 | 1020.6 |
| 20260831065622 | 71 | 0.0 | 0.0 | 0.00 | 0.02 | 0.00 | 77 | 1020.7 | |
| 20260831065517 | 71 | 0.0 | 0.0 | 0.00 | 0.02 | 0.00 | 77 | 1020.7 | |
| 20260831065429 | 71 | 299 | 1.0 | 1.0 | 0.00 | 0.02 | 0.00 | 77 | 1020.7 |
| 20260831065344 | 71 | 299 | 1.0 | 1.0 | 0.00 | 0.02 | 0.00 | 77 | 1020.8 |
| 20260831065220 | 71 | 299 | 0.0 | 1.0 | 0.00 | 0.02 | 0.00 | 77 | 1020.8 |
| 20260831065116 | 71 | 304 | 1.0 | 2.0 | 0.00 | 0.02 | 0.00 | 77 | 1020.8 |
| 20260831065027 | 71 | 0.0 | 0.0 | 0.00 | 0.02 | 0.00 | 78 | 1020.7 | |
| 20260831064923 | 71 | 0.0 | 0.0 | 0.00 | 0.02 | 0.00 | 78 | 1020.6 | |
| 20260831064838 | 71 | 0.0 | 0.0 | 0.00 | 0.02 | 0.00 | 78 | 1020.6 | |
| 20260831064730 | 71 | 315 | 0.0 | 1.0 | 0.00 | 0.02 | 0.00 | 77 | 1020.6 |
| 20260831064625 | 71 | 315 | 0.0 | 1.0 | 0.00 | 0.02 | 0.00 | 77 | 1020.6 |
| 20260831064521 | 71 | 315 | 0.0 | 1.0 | 0.00 | 0.02 | 0.00 | 77 | 1020.9 |
| 20260831064417 | 71 | 315 | 0.0 | 1.0 | 0.00 | 0.02 | 0.00 | 77 | 1020.6 |
| 20260831064328 | 71 | 311 | 2.0 | 3.0 | 0.00 | 0.02 | 0.00 | 77 | 1020.6 |
| 20260831064224 | 71 | 307 | 2.0 | 2.0 | 0.00 | 0.02 | 0.00 | 77 | 1020.4 |
| 20260831064120 | 71 | 307 | 2.0 | 2.0 | 0.00 | 0.02 | 0.00 | 77 | 1020.6 |
| 20260831064035 | 71 | 293 | 2.0 | 3.0 | 0.00 | 0.02 | 0.00 | 78 | 1020.6 |
| 20260831064006 | 71 | 279 | 1.0 | 2.0 | 0.00 | 0.02 | 0.00 | 78 | 1020.5 |
| 20260831063822 | 71 | 279 | 1.0 | 2.0 | 0.00 | 0.02 | 0.00 | 78 | 1020.4 |
| 20260831063718 | 71 | 279 | 1.0 | 1.0 | 0.00 | 0.02 | 0.00 | 78 | 1020.6 |
| 20260831063629 | 71 | 279 | 1.0 | 2.0 | 0.00 | 0.02 | 0.00 | 78 | 1020.5 |
| 20260831063545 | 71 | 278 | 1.0 | 2.0 | 0.00 | 0.02 | 0.00 | 78 | 1020.5 |
| 20260831063441 | 71 | 278 | 0.0 | 1.0 | 0.00 | 0.02 | 0.00 | 79 | 1020.7 |
| 20260831063316 | 71 | 278 | 0.0 | 1.0 | 0.00 | 0.02 | 0.00 | 79 | 1020.5 |
| 20260831063228 | 71 | 278 | 0.0 | 1.0 | 0.00 | 0.02 | 0.00 | 78 | 1020.5 |
| 20260831063123 | 71 | 281 | 1.0 | 2.0 | 0.00 | 0.02 | 0.00 | 78 | 1020.6 |
| 20260831063019 | 71 | 296 | 0.0 | 1.0 | 0.00 | 0.02 | 0.00 | 78 | 1020.6 |
| 20260831062931 | 71 | 296 | 1.0 | 2.0 | 0.00 | 0.02 | 0.00 | 77 | 1020.8 |
| 20260831062826 | 71 | 297 | 1.0 | 2.0 | 0.00 | 0.02 | 0.00 | 78 | 1020.8 |
| 20260831062722 | 71 | 296 | 0.0 | 1.0 | 0.00 | 0.02 | 0.00 | 78 | 1020.8 |
| 20260831062637 | 71 | 296 | 0.0 | 1.0 | 0.00 | 0.02 | 0.00 | 78 | 1020.9 |
| 20260831062529 | 71 | 296 | 0.0 | 2.0 | 0.00 | 0.02 | 0.00 | 78 | 1020.8 |
| 20260831062424 | 71 | 296 | 0.0 | 1.0 | 0.00 | 0.02 | 0.00 | 78 | 1020.5 |
| 20260831062320 | 71 | 297 | 0.0 | 1.0 | 0.00 | 0.02 | 0.00 | 78 | 1020.7 |
| 20260831062216 | 71 | 296 | 0.0 | 1.0 | 0.00 | 0.02 | 0.00 | 78 | 1021.0 |
| 20260831062127 | 71 | 296 | 1.0 | 1.0 | 0.00 | 0.02 | 0.00 | 78 | 1020.7 |
| 20260831062022 | 71 | 290 | 1.0 | 2.0 | 0.00 | 0.02 | 0.00 | 79 | 1020.7 |
| 20260831061917 | 71 | 251 | 0.0 | 1.0 | 0.00 | 0.02 | 0.00 | 78 | 1020.9 |
| 20260831061829 | 71 | 251 | 0.0 | 1.0 | 0.00 | 0.02 | 0.00 | 78 | 1020.7 |
| 20260831061725 | 71 | 250 | 0.0 | 1.0 | 0.00 | 0.02 | 0.00 | 78 | 1020.8 |
| 20260831061620 | 71 | 250 | 0.0 | 1.0 | 0.00 | 0.02 | 0.00 | 78 | 1020.8 |
| 20260831061516 | 71 | 250 | 0.0 | 1.0 | 0.00 | 0.02 | 0.00 | 79 | 1020.8 |
| 20260831061447 | 71 | 277 | 2.0 | 4.0 | 0.00 | 0.02 | 0.00 | 80 | 1020.9 |
| 20260831061323 | 71 | 294 | 2.0 | 4.0 | 0.00 | 0.02 | 0.00 | 81 | 1020.9 |
| 20260831061219 | 71 | 284 | 0.0 | 1.0 | 0.00 | 0.02 | 0.00 | 81 | 1021.0 |
| 20260831061130 | 71 | 283 | 1.0 | 2.0 | 0.00 | 0.02 | 0.00 | 81 | 1020.9 |
| 20260831061026 | 71 | 267 | 2.0 | 2.0 | 0.00 | 0.02 | 0.00 | 81 | 1021.0 |
| 20260831060922 | 71 | 263 | 1.0 | 2.0 | 0.00 | 0.02 | 0.00 | 82 | 1021.1 |
| 20260831060817 | 71 | 264 | 1.0 | 2.0 | 0.00 | 0.02 | 0.00 | 82 | 1021.0 |
| 20260831060728 | 71 | 263 | 1.0 | 2.0 | 0.00 | 0.02 | 0.00 | 82 | 1021.0 |
| 20260831060623 | 71 | 0.0 | 0.0 | 0.00 | 0.02 | 0.00 | 82 | 1020.9 | |
| 20260831060519 | 71 | 263 | 0.0 | 1.0 | 0.00 | 0.02 | 0.00 | 82 | 1020.9 |
| 20260831060451 | 71 | 263 | 0.0 | 1.0 | 0.00 | 0.02 | 0.00 | 83 | 1021.0 |
| 20260831060326 | 71 | 263 | 1.0 | 2.0 | 0.00 | 0.02 | 0.00 | 83 | 1021.0 |
| 20260831060222 | 71 | 253 | 0.0 | 1.0 | 0.00 | 0.02 | 0.00 | 84 | 1020.9 |
| 20260831060118 | 71 | 253 | 1.0 | 1.0 | 0.00 | 0.02 | 0.00 | 84 | 1020.9 |
| 20260831060029 | 71 | 254 | 0.0 | 1.0 | 0.00 | 0.02 | 0.00 | 84 | 1021.1 |
| 20260831055925 | 71 | 254 | 1.0 | 1.0 | 0.00 | 0.02 | 0.00 | 84 | 1021.1 |
| 20260831055821 | 71 | 254 | 1.0 | 1.0 | 0.00 | 0.02 | 0.00 | 84 | 1021.0 |
| 20260831055736 | 70 | 254 | 1.0 | 1.0 | 0.00 | 0.02 | 0.00 | 84 | 1021.0 |
| 20260831055628 | 70 | 254 | 0.0 | 1.0 | 0.00 | 0.02 | 0.00 | 84 | 1020.8 |
| 20260831055523 | 71 | 0.0 | 0.0 | 0.00 | 0.02 | 0.00 | 83 | 1020.7 | |
| 20260831055419 | 71 | 0.0 | 0.0 | 0.00 | 0.02 | 0.00 | 84 | 1021.0 | |
| 20260831055331 | 71 | 0.0 | 0.0 | 0.00 | 0.02 | 0.00 | 84 | 1020.9 | |
| 20260831055226 | 71 | 0.0 | 0.0 | 0.00 | 0.02 | 0.00 | 84 | 1020.8 | |
| 20260831055122 | 71 | 0.0 | 0.0 | 0.00 | 0.02 | 0.00 | 85 | 1020.9 | |
| 20260831055018 | 71 | 0.0 | 0.0 | 0.00 | 0.02 | 0.00 | 85 | 1020.8 | |
| 20260831054929 | 71 | 253 | 0.0 | 1.0 | 0.00 | 0.02 | 0.00 | 84 | 1020.8 |
| 20260831054824 | 71 | 0.0 | 0.0 | 0.00 | 0.02 | 0.00 | 84 | 1020.7 | |
| 20260831054720 | 70 | 0.0 | 0.0 | 0.00 | 0.02 | 0.00 | 84 | 1020.7 | |
| 20260831054616 | 70 | 253 | 0.0 | 1.0 | 0.00 | 0.02 | 0.00 | 84 | 1020.8 |
| 20260831054527 | 70 | 253 | 0.0 | 1.0 | 0.00 | 0.02 | 0.00 | 84 | 1020.9 |
| 20260831054423 | 70 | 253 | 0.0 | 1.0 | 0.00 | 0.02 | 0.00 | 84 | 1021.1 |
| 20260831054319 | 70 | 0.0 | 0.0 | 0.00 | 0.02 | 0.00 | 83 | 1021.1 | |
| 20260831054230 | 70 | 0.0 | 0.0 | 0.00 | 0.02 | 0.00 | 83 | 1021.0 | |
| 20260831054126 | 71 | 253 | 0.0 | 1.0 | 0.00 | 0.02 | 0.00 | 83 | 1020.9 |
| 20260831054041 | 71 | 253 | 0.0 | 1.0 | 0.00 | 0.02 | 0.00 | 83 | 1020.9 |
| 20260831053917 | 71 | 0.0 | 0.0 | 0.00 | 0.02 | 0.00 | 83 | 1021.0 | |
| 20260831053829 | 70 | 253 | 0.0 | 1.0 | 0.00 | 0.02 | 0.00 | 83 | 1020.8 |
| 20260831053724 | 71 | 253 | 0.0 | 1.0 | 0.00 | 0.02 | 0.00 | 83 | 1020.7 |
| 20260831053620 | 71 | 0.0 | 0.0 | 0.00 | 0.02 | 0.00 | 82 | 1021.1 | |
| 20260831053515 | 71 | 0.0 | 0.0 | 0.00 | 0.02 | 0.00 | 82 | 1021.1 | |
| 20260831053426 | 71 | 0.0 | 0.0 | 0.00 | 0.02 | 0.00 | 83 | 1020.8 | |
| 20260831053322 | 71 | 0.0 | 0.0 | 0.00 | 0.02 | 0.00 | 83 | 1020.9 | |
| 20260831053217 | 71 | 0.0 | 0.0 | 0.00 | 0.02 | 0.00 | 83 | 1020.9 | |
| 20260831053149 | 71 | 0.0 | 0.0 | 0.00 | 0.02 | 0.00 | 83 | 1020.8 | |
| 20260831053025 | 71 | 254 | 0.0 | 1.0 | 0.00 | 0.02 | 0.00 | 83 | 1020.8 |
| 20260831052920 | 71 | 254 | 1.0 | 2.0 | 0.00 | 0.02 | 0.00 | 82 | 1020.9 |
| 20260831052816 | 71 | 253 | 0.0 | 1.0 | 0.00 | 0.02 | 0.00 | 82 | 1020.9 |
| 20260831052727 | 71 | 0.0 | 0.0 | 0.00 | 0.02 | 0.00 | 82 | 1020.6 | |
| 20260831052623 | 71 | 0.0 | 0.0 | 0.00 | 0.02 | 0.00 | 82 | 1020.7 | |
| 20260831052530 | 71 | 253 | 0.0 | 1.0 | 0.00 | 0.02 | 0.00 | 83 | 1020.7 |
| 20260831052326 | 71 | 0.0 | 0.0 | 0.00 | 0.02 | 0.00 | 83 | 1020.6 | |
| 20260831052241 | 71 | 0.0 | 0.0 | 0.00 | 0.02 | 0.00 | 83 | 1020.6 | |
| 20260831052117 | 71 | 253 | 0.0 | 1.0 | 0.00 | 0.02 | 0.00 | 83 | 1020.6 |
| 20260831052028 | 71 | 253 | 1.0 | 1.0 | 0.00 | 0.02 | 0.00 | 83 | 1020.7 |
| 20260831052004 | 71 | 253 | 1.0 | 1.0 | 0.00 | 0.02 | 0.00 | 84 | 1020.8 |
| 20260831051819 | 71 | 253 | 1.0 | 1.0 | 0.00 | 0.02 | 0.00 | 84 | 1020.8 |
| 20260831051715 | 71 | 253 | 1.0 | 1.0 | 0.00 | 0.02 | 0.00 | 83 | 1020.8 |
| 20260831051627 | 71 | 253 | 0.0 | 1.0 | 0.00 | 0.02 | 0.00 | 83 | 1020.8 |
| 20260831051522 | 71 | 253 | 0.0 | 1.0 | 0.00 | 0.02 | 0.00 | 83 | 1020.8 |
| 20260831051418 | 71 | 253 | 0.0 | 1.0 | 0.00 | 0.02 | 0.00 | 84 | 1020.9 |
| 20260831051329 | 71 | 253 | 0.0 | 1.0 | 0.00 | 0.02 | 0.00 | 84 | 1020.7 |
| 20260831051225 | 71 | 253 | 0.0 | 1.0 | 0.00 | 0.02 | 0.00 | 83 | 1020.7 |
| 20260831051121 | 71 | 0.0 | 0.0 | 0.00 | 0.02 | 0.00 | 83 | 1021.0 | |
| 20260831051016 | 71 | 253 | 0.0 | 1.0 | 0.00 | 0.02 | 0.00 | 82 | 1021.1 |
| 20260831050928 | 71 | 0.0 | 0.0 | 0.00 | 0.02 | 0.00 | 81 | 1020.9 | |
| 20260831050823 | 71 | 0.0 | 0.0 | 0.00 | 0.02 | 0.00 | 81 | 1021.0 | |
| 20260831050719 | 71 | 0.0 | 0.0 | 0.00 | 0.02 | 0.00 | 81 | 1021.1 | |
| 20260831050631 | 71 | 0.0 | 0.0 | 0.00 | 0.02 | 0.00 | 81 | 1021.0 | |
| 20260831050526 | 71 | 0.0 | 0.0 | 0.00 | 0.02 | 0.00 | 81 | 1021.0 | |
| 20260831050422 | 72 | 0.0 | 0.0 | 0.00 | 0.02 | 0.00 | 80 | 1020.9 | |
| 20260831050317 | 72 | 0.0 | 0.0 | 0.00 | 0.02 | 0.00 | 80 | 1020.9 | |
| 20260831050229 | 72 | 0.0 | 0.0 | 0.00 | 0.02 | 0.00 | 80 | 1020.8 | |
| 20260831050124 | 72 | 0.0 | 0.0 | 0.00 | 0.02 | 0.00 | 80 | 1021.1 | |
| 20260831050020 | 72 | 0.0 | 0.0 | 0.00 | 0.02 | 0.00 | 80 | 1021.1 | |
| 20260831045915 | 72 | 0.0 | 0.0 | 0.00 | 0.02 | 0.00 | 81 | 1021.1 | |
| 20260831045827 | 72 | 0.0 | 0.0 | 0.00 | 0.02 | 0.00 | 81 | 1021.1 | |
| 20260831045722 | 72 | 0.0 | 0.0 | 0.00 | 0.02 | 0.00 | 81 | 1020.9 | |
| 20260831045618 | 72 | 0.0 | 0.0 | 0.00 | 0.02 | 0.00 | 80 | 1020.9 | |
| 20260831045550 | 72 | 0.0 | 0.0 | 0.00 | 0.02 | 0.00 | 80 | 1020.9 | |
| 20260831045425 | 72 | 0.0 | 0.0 | 0.00 | 0.02 | 0.00 | 80 | 1020.9 | |
| 20260831045321 | 72 | 0.0 | 0.0 | 0.00 | 0.02 | 0.00 | 80 | 1020.9 | |
| 20260831045216 | 72 | 0.0 | 0.0 | 0.00 | 0.02 | 0.00 | 80 | 1021.1 | |
| 20260831045127 | 72 | 253 | 0.0 | 1.0 | 0.00 | 0.02 | 0.00 | 80 | 1021.1 |
| 20260831045043 | 72 | 253 | 0.0 | 1.0 | 0.00 | 0.02 | 0.00 | 81 | 1021.1 |
| 20260831044919 | 72 | 0.0 | 0.0 | 0.00 | 0.02 | 0.00 | 80 | 1021.2 | |
| 20260831044911 | 72 | 253 | 0.0 | 1.0 | 0.00 | 0.02 | 0.00 | 80 | 1021.0 |
| 20260831044726 | 72 | 253 | 1.0 | 1.0 | 0.00 | 0.02 | 0.00 | 79 | 1021.0 |
| 20260831044622 | 72 | 253 | 0.0 | 1.0 | 0.00 | 0.02 | 0.00 | 79 | 1021.0 |
| 20260831044517 | 72 | 0.0 | 0.0 | 0.00 | 0.02 | 0.00 | 79 | 1021.0 | |
| 20260831044429 | 72 | 0.0 | 0.0 | 0.00 | 0.02 | 0.00 | 79 | 1021.1 | |
| 20260831044325 | 72 | 0.0 | 0.0 | 0.00 | 0.02 | 0.00 | 79 | 1021.0 | |
| 20260831044220 | 72 | 0.0 | 0.0 | 0.00 | 0.02 | 0.00 | 79 | 1020.9 | |
| 20260831044116 | 72 | 0.0 | 0.0 | 0.00 | 0.02 | 0.00 | 79 | 1021.0 | |
| 20260831044027 | 72 | 0.0 | 0.0 | 0.00 | 0.02 | 0.00 | 79 | 1020.9 | |
| 20260831043943 | 72 | 0.0 | 0.0 | 0.00 | 0.02 | 0.00 | 79 | 1020.9 | |
| 20260831043839 | 72 | 0.0 | 0.0 | 0.00 | 0.02 | 0.00 | 79 | 1021.1 | |
| 20260831043730 | 72 | 0.0 | 0.0 | 0.00 | 0.02 | 0.00 | 79 | 1021.0 | |
| 20260831043626 | 72 | 0.0 | 0.0 | 0.00 | 0.02 | 0.00 | 80 | 1020.8 | |
| 20260831043521 | 72 | 0.0 | 0.0 | 0.00 | 0.02 | 0.00 | 79 | 1021.0 | |
| 20260831043417 | 72 | 0.0 | 0.0 | 0.00 | 0.02 | 0.00 | 80 | 1020.9 | |
| 20260831043329 | 73 | 0.0 | 0.0 | 0.00 | 0.02 | 0.00 | 79 | 1020.9 | |
| 20260831043224 | 73 | 0.0 | 0.0 | 0.00 | 0.02 | 0.00 | 79 | 1021.0 | |
| 20260831043119 | 73 | 0.0 | 0.0 | 0.00 | 0.02 | 0.00 | 79 | 1021.0 | |
| 20260831043051 | 73 | 0.0 | 0.0 | 0.00 | 0.02 | 0.00 | 80 | 1020.9 | |
| 20260831042927 | 73 | 0.0 | 0.0 | 0.00 | 0.02 | 0.00 | 80 | 1020.9 | |
| 20260831042822 | 73 | 0.0 | 0.0 | 0.00 | 0.02 | 0.00 | 80 | 1020.8 | |
| 20260831042717 | 73 | 0.0 | 0.0 | 0.00 | 0.02 | 0.00 | 80 | 1020.8 | |
| 20260831042649 | 73 | 0.0 | 0.0 | 0.00 | 0.02 | 0.00 | 80 | 1020.9 | |
| 20260831042524 | 73 | 0.0 | 0.0 | 0.00 | 0.02 | 0.00 | 80 | 1021.0 | |
| 20260831042500 | 73 | 253 | 0.0 | 1.0 | 0.00 | 0.02 | 0.00 | 80 | 1021.0 |
| 20260831042315 | 73 | 253 | 1.0 | 1.0 | 0.00 | 0.02 | 0.00 | 81 | 1021.1 |
| 20260831042227 | 73 | 253 | 1.0 | 1.0 | 0.00 | 0.02 | 0.00 | 81 | 1020.8 |
| 20260831042123 | 73 | 253 | 0.0 | 1.0 | 0.00 | 0.02 | 0.00 | 81 | 1020.8 |
| 20260831042018 | 73 | 253 | 1.0 | 1.0 | 0.00 | 0.02 | 0.00 | 81 | 1020.7 |
| 20260831041930 | 73 | 253 | 1.0 | 1.0 | 0.00 | 0.02 | 0.00 | 81 | 1021.0 |
| 20260831041826 | 73 | 253 | 1.0 | 1.0 | 0.00 | 0.02 | 0.00 | 81 | 1020.8 |
| 20260831041721 | 73 | 253 | 1.0 | 1.0 | 0.00 | 0.02 | 0.00 | 80 | 1020.8 |
| 20260831041636 | 73 | 253 | 0.0 | 1.0 | 0.00 | 0.02 | 0.00 | 79 | 1020.9 |
| 20260831041529 | 73 | 253 | 0.0 | 1.0 | 0.00 | 0.02 | 0.00 | 79 | 1020.8 |
| 20260831041424 | 73 | 0.0 | 0.0 | 0.00 | 0.02 | 0.00 | 79 | 1020.8 | |
| 20260831041319 | 73 | 0.0 | 0.0 | 0.00 | 0.02 | 0.00 | 78 | 1020.9 | |
| 20260831041231 | 73 | 0.0 | 0.0 | 0.00 | 0.02 | 0.00 | 78 | 1020.7 | |
| 20260831041126 | 73 | 0.0 | 0.0 | 0.00 | 0.02 | 0.00 | 78 | 1020.6 | |
| 20260831040829 | 73 | 0.0 | 0.0 | 0.00 | 0.02 | 0.00 | 78 | 1020.8 | |
| 20260831040725 | 73 | 0.0 | 0.0 | 0.00 | 0.02 | 0.00 | 78 | 1020.7 | |
| 20260831040621 | 73 | 0.0 | 0.0 | 0.00 | 0.02 | 0.00 | 78 | 1020.7 | |
| 20260831040516 | 73 | 0.0 | 0.0 | 0.00 | 0.02 | 0.00 | 78 | 1020.8 | |
| 20260831040428 | 73 | 0.0 | 0.0 | 0.00 | 0.02 | 0.00 | 79 | 1020.7 | |
| 20260831040324 | 73 | 0.0 | 0.0 | 0.00 | 0.02 | 0.00 | 79 | 1020.8 | |
| 20260831040219 | 73 | 253 | 0.0 | 1.0 | 0.00 | 0.02 | 0.00 | 79 | 1020.8 |
| 20260831040131 | 73 | 253 | 0.0 | 1.0 | 0.00 | 0.02 | 0.00 | 79 | 1020.8 |
| 20260831040027 | 73 | 0.0 | 0.0 | 0.00 | 0.02 | 0.02 | 79 | 1020.8 | |
| 20260831035922 | 73 | 253 | 0.0 | 1.0 | 0.00 | 0.02 | 0.02 | 79 | 1020.7 |
| 20260831035817 | 73 | 0.0 | 0.0 | 0.00 | 0.02 | 0.02 | 79 | 1020.7 | |
| 20260831035729 | 73 | 253 | 0.0 | 1.0 | 0.00 | 0.02 | 0.02 | 79 | 1020.9 |
| 20260831035625 | 73 | 253 | 1.0 | 1.0 | 0.00 | 0.02 | 0.02 | 79 | 1021.0 |
| 20260831035520 | 73 | 253 | 0.0 | 1.0 | 0.00 | 0.02 | 0.02 | 79 | 1020.8 |
| 20260831035416 | 73 | 253 | 1.0 | 1.0 | 0.00 | 0.02 | 0.02 | 79 | 1021.0 |
| 20260831035328 | 73 | 253 | 0.0 | 1.0 | 0.00 | 0.02 | 0.02 | 79 | 1020.7 |
| 20260831035223 | 73 | 253 | 1.0 | 1.0 | 0.00 | 0.02 | 0.02 | 79 | 1020.7 |
| 20260831035119 | 73 | 253 | 1.0 | 1.0 | 0.00 | 0.02 | 0.02 | 79 | 1020.7 |
| 20260831035030 | 73 | 253 | 0.0 | 1.0 | 0.00 | 0.02 | 0.02 | 79 | 1020.6 |
| 20260831034926 | 73 | 253 | 1.0 | 1.0 | 0.00 | 0.02 | 0.02 | 79 | 1020.7 |
| 20260831034822 | 73 | 250 | 1.0 | 2.0 | 0.00 | 0.02 | 0.02 | 78 | 1020.6 |
| 20260831034737 | 74 | 239 | 1.0 | 1.0 | 0.00 | 0.02 | 0.02 | 79 | 1020.7 |
| 20260831034629 | 74 | 239 | 0.0 | 1.0 | 0.00 | 0.02 | 0.02 | 79 | 1020.6 |
| 20260831034525 | 74 | 239 | 1.0 | 1.0 | 0.00 | 0.02 | 0.02 | 79 | 1020.5 |
| 20260831034420 | 74 | 239 | 0.0 | 1.0 | 0.00 | 0.02 | 0.02 | 79 | 1020.5 |
| 20260831034316 | 74 | 239 | 1.0 | 1.0 | 0.00 | 0.02 | 0.02 | 79 | 1020.7 |
| 20260831034227 | 74 | 239 | 1.0 | 2.0 | 0.00 | 0.02 | 0.02 | 79 | 1020.6 |
| 20260831034122 | 74 | 239 | 1.0 | 2.0 | 0.00 | 0.02 | 0.02 | 78 | 1020.6 |
| 20260831034038 | 74 | 239 | 1.0 | 2.0 | 0.00 | 0.02 | 0.02 | 79 | 1020.7 |
| 20260831033929 | 74 | 239 | 0.0 | 1.0 | 0.00 | 0.02 | 0.02 | 79 | 1020.6 |
| 20260831033825 | 74 | 239 | 0.0 | 1.0 | 0.00 | 0.02 | 0.02 | 79 | 1020.7 |
| 20260831033721 | 74 | 239 | 1.0 | 1.0 | 0.00 | 0.02 | 0.02 | 78 | 1020.7 |
| 20260831033616 | 74 | 238 | 2.0 | 3.0 | 0.00 | 0.02 | 0.02 | 79 | 1020.7 |
| 20260831033527 | 74 | 311 | 1.0 | 1.0 | 0.00 | 0.02 | 0.02 | 79 | 1020.7 |
| 20260831033423 | 74 | 311 | 1.0 | 1.0 | 0.00 | 0.02 | 0.02 | 79 | 1020.7 |
| 20260831033318 | 74 | 310 | 1.0 | 2.0 | 0.00 | 0.02 | 0.02 | 79 | 1020.7 |
| 20260831033230 | 74 | 303 | 1.0 | 3.0 | 0.00 | 0.02 | 0.02 | 79 | 1020.7 |
| 20260831033126 | 74 | 251 | 1.0 | 2.0 | 0.00 | 0.02 | 0.02 | 79 | 1020.6 |
| 20260831033021 | 74 | 240 | 0.0 | 1.0 | 0.00 | 0.02 | 0.02 | 79 | 1020.7 |
| 20260831032917 | 74 | 239 | 2.0 | 3.0 | 0.00 | 0.02 | 0.02 | 79 | 1020.6 |
| 20260831032829 | 74 | 247 | 2.0 | 3.0 | 0.00 | 0.02 | 0.02 | 79 | 1020.6 |
| 20260831032724 | 74 | 249 | 2.0 | 3.0 | 0.00 | 0.02 | 0.02 | 80 | 1020.6 |
| 20260831032620 | 74 | 249 | 2.0 | 2.0 | 0.00 | 0.02 | 0.02 | 80 | 1020.6 |
| 20260831032515 | 74 | 264 | 1.0 | 2.0 | 0.00 | 0.02 | 0.02 | 80 | 1020.7 |
| 20260831032427 | 74 | 266 | 2.0 | 2.0 | 0.00 | 0.02 | 0.02 | 80 | 1020.6 |
| 20260831032322 | 74 | 282 | 2.0 | 3.0 | 0.00 | 0.02 | 0.02 | 81 | 1020.6 |
| 20260831032238 | 74 | 309 | 1.0 | 1.0 | 0.00 | 0.02 | 0.02 | 81 | 1020.7 |
| 20260831032130 | 74 | 310 | 1.0 | 1.0 | 0.00 | 0.02 | 0.02 | 81 | 1020.6 |
| 20260831032025 | 74 | 314 | 1.0 | 2.0 | 0.00 | 0.02 | 0.02 | 82 | 1020.6 |
| 20260831031920 | 74 | 324 | 1.0 | 2.0 | 0.00 | 0.02 | 0.02 | 82 | 1020.5 |
| 20260831031816 | 74 | 324 | 1.0 | 2.0 | 0.00 | 0.02 | 0.02 | 82 | 1020.8 |
| 20260831031728 | 74 | 325 | 1.0 | 1.0 | 0.00 | 0.02 | 0.02 | 82 | 1020.6 |
| 20260831031643 | 74 | 325 | 1.0 | 1.0 | 0.00 | 0.02 | 0.02 | 82 | 1020.4 |
| 20260831031519 | 74 | 325 | 1.0 | 2.0 | 0.00 | 0.02 | 0.02 | 82 | 1020.3 |
| 20260831031431 | 74 | 326 | 0.0 | 1.0 | 0.00 | 0.02 | 0.02 | 82 | 1020.5 |
| 20260831031326 | 74 | 326 | 1.0 | 1.0 | 0.00 | 0.02 | 0.02 | 82 | 1020.4 |
| 20260831031221 | 74 | 326 | 1.0 | 1.0 | 0.00 | 0.02 | 0.02 | 82 | 1020.4 |
| 20260831031136 | 74 | 326 | 1.0 | 1.0 | 0.00 | 0.02 | 0.02 | 83 | 1020.3 |
| 20260831031028 | 74 | 326 | 1.0 | 1.0 | 0.00 | 0.02 | 0.02 | 83 | 1020.5 |
| 20260831030923 | 74 | 326 | 1.0 | 1.0 | 0.00 | 0.02 | 0.02 | 83 | 1020.5 |
| 20260831030819 | 74 | 326 | 1.0 | 2.0 | 0.00 | 0.02 | 0.02 | 83 | 1020.5 |
| 20260831030715 | 74 | 326 | 1.0 | 2.0 | 0.00 | 0.02 | 0.02 | 83 | 1020.2 |
| 20260831030627 | 74 | 326 | 1.0 | 1.0 | 0.00 | 0.02 | 0.02 | 82 | 1020.2 |
| 20260831030522 | 74 | 0.0 | 0.0 | 0.00 | 0.02 | 0.02 | 81 | 1020.2 | |
| 20260831030418 | 74 | 0.0 | 0.0 | 0.00 | 0.02 | 0.02 | 81 | 1020.3 | |
| 20260831030410 | 74 | 0.0 | 0.0 | 0.00 | 0.02 | 0.02 | 81 | 1020.2 | |
| 20260831030245 | 74 | 0.0 | 0.0 | 0.00 | 0.02 | 0.02 | 81 | 1020.2 | |
| 20260831030121 | 74 | 0.0 | 0.0 | 0.00 | 0.02 | 0.02 | 81 | 1020.2 | |
| 20260831030016 | 74 | 0.0 | 0.0 | 0.00 | 0.02 | 0.02 | 82 | 1020.5 | |
| 20260831025928 | 74 | 326 | 0.0 | 1.0 | 0.00 | 0.02 | 0.02 | 82 | 1020.1 |
| 20260831025824 | 74 | 326 | 1.0 | 1.0 | 0.00 | 0.02 | 0.02 | 83 | 1020.3 |
| 20260831025719 | 74 | 326 | 1.0 | 2.0 | 0.00 | 0.02 | 0.02 | 83 | 1020.5 |
| 20260831025631 | 74 | 0.0 | 0.0 | 0.00 | 0.02 | 0.02 | 82 | 1020.3 | |
| 20260831025526 | 74 | 327 | 1.0 | 1.0 | 0.00 | 0.02 | 0.02 | 83 | 1020.2 |
| 20260831025442 | 74 | 328 | 1.0 | 1.0 | 0.00 | 0.02 | 0.02 | 82 | 1020.3 |
| 20260831025318 | 75 | 328 | 1.0 | 2.0 | 0.00 | 0.02 | 0.02 | 82 | 1020.2 |
| 20260831025229 | 75 | 325 | 1.0 | 2.0 | 0.00 | 0.02 | 0.02 | 82 | 1020.1 |
| 20260831025125 | 75 | 0.0 | 0.0 | 0.00 | 0.02 | 0.02 | 82 | 1020.3 | |
| 20260831025021 | 75 | 313 | 0.0 | 1.0 | 0.00 | 0.02 | 0.02 | 83 | 1020.4 |
| 20260831024916 | 75 | 313 | 1.0 | 2.0 | 0.00 | 0.02 | 0.02 | 83 | 1020.3 |
| 20260831024828 | 75 | 315 | 2.0 | 2.0 | 0.00 | 0.02 | 0.02 | 84 | 1020.2 |
| 20260831024724 | 75 | 312 | 1.0 | 1.0 | 0.00 | 0.02 | 0.02 | 84 | 1020.3 |
| 20260831024619 | 75 | 318 | 2.0 | 3.0 | 0.00 | 0.02 | 0.02 | 84 | 1020.3 |
| 20260831024531 | 75 | 309 | 2.0 | 3.0 | 0.00 | 0.02 | 0.02 | 84 | 1020.5 |
| 20260831024427 | 75 | 300 | 2.0 | 2.0 | 0.00 | 0.02 | 0.02 | 83 | 1020.3 |
| 20260831024322 | 75 | 299 | 0.0 | 1.0 | 0.00 | 0.02 | 0.02 | 81 | 1020.4 |
| 20260831024218 | 75 | 0.0 | 0.0 | 0.00 | 0.02 | 0.02 | 81 | 1020.4 | |
| 20260831024149 | 75 | 0.0 | 0.0 | 0.00 | 0.02 | 0.02 | 81 | 1020.5 | |
| 20260831024025 | 75 | 0.0 | 0.0 | 0.00 | 0.02 | 0.02 | 82 | 1020.7 | |
| 20260831023921 | 75 | 0.0 | 0.0 | 0.00 | 0.02 | 0.02 | 82 | 1020.6 | |
| 20260831023816 | 75 | 299 | 0.0 | 1.0 | 0.00 | 0.02 | 0.02 | 83 | 1020.3 |
| 20260831023728 | 75 | 299 | 1.0 | 1.0 | 0.00 | 0.02 | 0.02 | 83 | 1020.5 |
| 20260831023623 | 75 | 299 | 1.0 | 2.0 | 0.00 | 0.02 | 0.02 | 83 | 1020.7 |
| 20260831023519 | 75 | 298 | 1.0 | 1.0 | 0.00 | 0.02 | 0.02 | 83 | 1020.8 |
| 20260831023431 | 75 | 299 | 1.0 | 2.0 | 0.00 | 0.02 | 0.02 | 84 | 1020.8 |
| 20260831023347 | 75 | 299 | 2.0 | 4.0 | 0.00 | 0.02 | 0.02 | 84 | 1020.6 |
| 20260831023222 | 75 | 282 | 1.0 | 2.0 | 0.00 | 0.02 | 0.02 | 84 | 1020.8 |
| 20260831023118 | 75 | 309 | 2.0 | 3.0 | 0.00 | 0.02 | 0.02 | 84 | 1020.8 |
| 20260831023029 | 75 | 316 | 1.0 | 2.0 | 0.01 | 0.02 | 0.02 | 84 | 1020.6 |
| 20260831022925 | 75 | 330 | 2.0 | 3.0 | 0.01 | 0.02 | 0.02 | 85 | 1020.6 |
| 20260831022821 | 75 | 308 | 3.0 | 4.0 | 0.01 | 0.02 | 0.02 | 85 | 1020.9 |
| 20260831022716 | 75 | 308 | 3.0 | 7.0 | 0.01 | 0.02 | 0.02 | 85 | 1021.0 |
| 20260831022628 | 75 | 319 | 0.0 | 1.0 | 0.01 | 0.02 | 0.02 | 85 | 1020.8 |
| 20260831022524 | 76 | 318 | 2.0 | 3.0 | 0.01 | 0.02 | 0.02 | 85 | 1020.7 |
| 20260831022419 | 76 | 305 | 2.0 | 3.0 | 0.01 | 0.02 | 0.02 | 86 | 1021.0 |
| 20260831022331 | 76 | 310 | 2.0 | 3.0 | 0.01 | 0.02 | 0.02 | 85 | 1020.8 |
| 20260831022227 | 76 | 323 | 2.0 | 3.0 | 0.01 | 0.02 | 0.02 | 86 | 1020.8 |
| 20260831022122 | 76 | 313 | 2.0 | 3.0 | 0.01 | 0.02 | 0.02 | 86 | 1020.9 |
| 20260831022058 | 76 | 283 | 1.0 | 2.0 | 0.01 | 0.02 | 0.02 | 86 | 1020.8 |
| 20260831021929 | 76 | 302 | 1.0 | 2.0 | 0.01 | 0.02 | 0.02 | 86 | 1021.0 |
| 20260831021825 | 76 | 309 | 1.0 | 3.0 | 0.01 | 0.02 | 0.02 | 86 | 1021.0 |
| 20260831021721 | 76 | 307 | 1.0 | 2.0 | 0.01 | 0.02 | 0.02 | 86 | 1021.1 |
| 20260831021616 | 76 | 307 | 1.0 | 2.0 | 0.01 | 0.02 | 0.02 | 86 | 1021.1 |
| 20260831021528 | 76 | 310 | 1.0 | 2.0 | 0.01 | 0.02 | 0.02 | 87 | 1021.0 |
| 20260831021424 | 76 | 310 | 0.0 | 1.0 | 0.01 | 0.02 | 0.02 | 86 | 1021.0 |
| 20260831021359 | 76 | 310 | 0.0 | 1.0 | 0.01 | 0.02 | 0.02 | 86 | 1021.1 |
| 20260831021231 | 76 | 311 | 0.0 | 2.0 | 0.01 | 0.02 | 0.02 | 86 | 1021.1 |
| 20260831021126 | 76 | 313 | 1.0 | 2.0 | 0.01 | 0.02 | 0.02 | 87 | 1021.0 |
| 20260831021022 | 76 | 293 | 2.0 | 3.0 | 0.01 | 0.02 | 0.02 | 86 | 1021.1 |
| 20260831020918 | 76 | 258 | 1.0 | 2.0 | 0.01 | 0.02 | 0.02 | 86 | 1021.1 |
| 20260831020829 | 76 | 258 | 1.0 | 2.0 | 0.01 | 0.02 | 0.02 | 84 | 1021.0 |
| 20260831020725 | 76 | 258 | 1.0 | 1.0 | 0.01 | 0.02 | 0.02 | 82 | 1021.1 |
| 20260831020621 | 76 | 258 | 0.0 | 1.0 | 0.01 | 0.02 | 0.02 | 82 | 1021.1 |
| 20260831020536 | 76 | 0.0 | 0.0 | 0.01 | 0.02 | 0.02 | 83 | 1021.0 | |
| 20260831020428 | 76 | 258 | 0.0 | 1.0 | 0.01 | 0.02 | 0.02 | 82 | 1021.0 |
| 20260831020323 | 76 | 0.0 | 0.0 | 0.01 | 0.02 | 0.02 | 83 | 1021.0 | |
| 20260831020219 | 76 | 0.0 | 0.0 | 0.01 | 0.02 | 0.02 | 84 | 1021.2 | |
| 20260831020131 | 76 | 258 | 0.0 | 1.0 | 0.01 | 0.02 | 0.02 | 83 | 1021.0 |
| 20260831020046 | 76 | 258 | 0.0 | 1.0 | 0.01 | 0.02 | 0.02 | 83 | 1021.2 |
| 20260831015922 | 76 | 0.0 | 0.0 | 0.01 | 0.02 | 0.02 | 83 | 1020.9 | |
| 20260831015817 | 76 | 258 | 0.0 | 1.0 | 0.01 | 0.02 | 0.02 | 82 | 1020.8 |
| 20260831015729 | 76 | 258 | 1.0 | 1.0 | 0.01 | 0.02 | 0.02 | 83 | 1021.0 |
| 20260831015645 | 76 | 247 | 1.0 | 2.0 | 0.01 | 0.02 | 0.02 | 84 | 1020.9 |
| 20260831015521 | 76 | 242 | 2.0 | 2.0 | 0.01 | 0.02 | 0.02 | 84 | 1020.9 |
| 20260831015416 | 76 | 238 | 2.0 | 2.0 | 0.01 | 0.02 | 0.02 | 81 | 1021.0 |
| 20260831015328 | 76 | 237 | 0.0 | 1.0 | 0.01 | 0.02 | 0.02 | 81 | 1021.0 |
| 20260831015223 | 76 | 0.0 | 0.0 | 0.01 | 0.02 | 0.02 | 82 | 1020.9 | |
| 20260831015119 | 76 | 0.0 | 0.0 | 0.01 | 0.02 | 0.02 | 81 | 1021.0 | |
| 20260831015030 | 76 | 236 | 0.0 | 1.0 | 0.01 | 0.02 | 0.02 | 80 | 1020.7 |
| 20260831014942 | 76 | 0.0 | 0.0 | 0.01 | 0.02 | 0.02 | 79 | 1020.8 | |
| 20260831014717 | 76 | 0.0 | 0.0 | 0.00 | 0.01 | 0.01 | 79 | 1021.0 | |
| 20260831014628 | 76 | 237 | 0.0 | 1.0 | 0.00 | 0.01 | 0.01 | 79 | 1020.8 |
| 20260831014523 | 76 | 237 | 1.0 | 1.0 | 0.00 | 0.01 | 0.01 | 79 | 1020.8 |
| 20260831014419 | 76 | 237 | 0.0 | 1.0 | 0.00 | 0.01 | 0.01 | 78 | 1020.9 |
| 20260831014330 | 76 | 0.0 | 0.0 | 0.00 | 0.01 | 0.01 | 77 | 1021.0 | |
| 20260831014226 | 76 | 0.0 | 0.0 | 0.00 | 0.01 | 0.01 | 77 | 1020.9 | |
| 20260831014122 | 76 | 0.0 | 0.0 | 0.00 | 0.01 | 0.01 | 77 | 1020.9 | |
| 20260831014017 | 76 | 0.0 | 0.0 | 0.00 | 0.01 | 0.01 | 77 | 1021.0 | |
| 20260831013929 | 76 | 0.0 | 0.0 | 0.00 | 0.01 | 0.01 | 77 | 1020.8 | |
| 20260831013825 | 76 | 0.0 | 0.0 | 0.00 | 0.01 | 0.01 | 77 | 1020.8 | |
| 20260831013720 | 76 | 0.0 | 0.0 | 0.00 | 0.01 | 0.01 | 78 | 1020.8 | |
| 20260831013636 | 76 | 0.0 | 0.0 | 0.00 | 0.01 | 0.01 | 78 | 1020.9 | |
| 20260831013527 | 76 | 0.0 | 0.0 | 0.00 | 0.01 | 0.01 | 78 | 1021.0 | |
| 20260831013422 | 76 | 0.0 | 0.0 | 0.00 | 0.01 | 0.01 | 78 | 1021.0 | |
| 20260831013318 | 76 | 0.0 | 0.0 | 0.00 | 0.01 | 0.01 | 78 | 1020.8 | |
| 20260831013230 | 76 | 0.0 | 0.0 | 0.00 | 0.01 | 0.01 | 79 | 1021.0 | |
| 20260831013125 | 76 | 0.0 | 0.0 | 0.00 | 0.01 | 0.01 | 78 | 1020.8 | |
| 20260831013101 | 76 | 0.0 | 0.0 | 0.00 | 0.01 | 0.01 | 77 | 1020.9 | |
| 20260831012916 | 76 | 0.0 | 0.0 | 0.00 | 0.01 | 0.01 | 77 | 1020.7 | |
| 20260831012828 | 76 | 0.0 | 0.0 | 0.00 | 0.01 | 0.01 | 76 | 1020.9 | |
| 20260831012724 | 76 | 0.0 | 0.0 | 0.00 | 0.01 | 0.01 | 76 | 1020.8 | |
| 20260831012619 | 76 | 0.0 | 0.0 | 0.00 | 0.01 | 0.01 | 76 | 1020.9 | |
| 20260831012531 | 76 | 0.0 | 0.0 | 0.00 | 0.01 | 0.01 | 76 | 1020.7 | |
| 20260831012506 | 76 | 0.0 | 0.0 | 0.00 | 0.01 | 0.01 | 76 | 1020.9 | |
| 20260831012322 | 76 | 0.0 | 0.0 | 0.00 | 0.01 | 0.01 | 76 | 1020.8 | |
| 20260831012218 | 76 | 0.0 | 0.0 | 0.00 | 0.01 | 0.01 | 76 | 1020.7 | |
| 20260831012129 | 76 | 0.0 | 0.0 | 0.00 | 0.01 | 0.01 | 76 | 1020.8 | |
| 20260831012025 | 76 | 0.0 | 0.0 | 0.00 | 0.01 | 0.01 | 76 | 1020.7 | |
| 20260831011920 | 76 | 0.0 | 0.0 | 0.00 | 0.01 | 0.01 | 76 | 1020.7 | |
| 20260831011816 | 76 | 0.0 | 0.0 | 0.00 | 0.01 | 0.01 | 76 | 1020.7 | |
| 20260831011728 | 76 | 0.0 | 0.0 | 0.00 | 0.01 | 0.01 | 76 | 1020.7 | |
| 20260831011623 | 76 | 0.0 | 0.0 | 0.00 | 0.01 | 0.01 | 76 | 1020.8 | |
| 20260831011519 | 77 | 0.0 | 0.0 | 0.00 | 0.01 | 0.01 | 75 | 1020.8 | |
| 20260831011451 | 77 | 0.0 | 0.0 | 0.00 | 0.01 | 0.01 | 75 | 1020.6 | |
| 20260831011326 | 77 | 0.0 | 0.0 | 0.00 | 0.01 | 0.01 | 75 | 1020.5 | |
| 20260831011222 | 77 | 0.0 | 0.0 | 0.00 | 0.01 | 0.01 | 75 | 1020.8 | |
| 20260831011117 | 77 | 0.0 | 0.0 | 0.00 | 0.01 | 0.01 | 76 | 1020.6 | |
| 20260831011028 | 77 | 0.0 | 0.0 | 0.00 | 0.01 | 0.01 | 76 | 1020.5 | |
| 20260831010924 | 77 | 0.0 | 0.0 | 0.00 | 0.01 | 0.01 | 76 | 1020.6 | |
| 20260831010820 | 77 | 0.0 | 0.0 | 0.00 | 0.01 | 0.01 | 76 | 1020.7 | |
| 20260831010735 | 77 | 0.0 | 0.0 | 0.00 | 0.01 | 0.01 | 76 | 1020.5 | |
| 20260831010626 | 77 | 0.0 | 0.0 | 0.00 | 0.01 | 0.01 | 76 | 1020.5 | |
| 20260831010521 | 77 | 0.0 | 0.0 | 0.00 | 0.01 | 0.01 | 77 | 1020.7 | |
| 20260831010428 | 77 | 236 | 0.0 | 1.0 | 0.00 | 0.01 | 0.01 | 76 | 1020.5 |
| 20260831010328 | 77 | 0.0 | 0.0 | 0.00 | 0.01 | 0.01 | 76 | 1020.4 | |
| 20260831010223 | 77 | 0.0 | 0.0 | 0.00 | 0.01 | 0.01 | 76 | 1020.4 | |
| 20260831010119 | 77 | 0.0 | 0.0 | 0.00 | 0.01 | 0.01 | 76 | 1020.4 | |
| 20260831010031 | 77 | 0.0 | 0.0 | 0.00 | 0.01 | 0.01 | 76 | 1020.5 | |
| 20260831005927 | 77 | 0.0 | 0.0 | 0.00 | 0.01 | 0.01 | 75 | 1020.3 | |
| 20260831005822 | 77 | 0.0 | 0.0 | 0.00 | 0.01 | 0.01 | 75 | 1020.4 | |
| 20260831005717 | 77 | 0.0 | 0.0 | 0.00 | 0.01 | 0.01 | 75 | 1020.5 | |
| 20260831005629 | 77 | 0.0 | 0.0 | 0.00 | 0.01 | 0.01 | 75 | 1020.4 | |
| 20260831005525 | 77 | 0.0 | 0.0 | 0.00 | 0.01 | 0.01 | 75 | 1020.3 | |
| 20260831005440 | 77 | 0.0 | 0.0 | 0.00 | 0.01 | 0.01 | 75 | 1020.4 | |
| 20260831005316 | 77 | 0.0 | 0.0 | 0.00 | 0.01 | 0.01 | 75 | 1020.5 | |
| 20260831005227 | 77 | 0.0 | 0.0 | 0.00 | 0.01 | 0.01 | 75 | 1020.3 | |
| 20260831005123 | 77 | 0.0 | 0.0 | 0.00 | 0.01 | 0.01 | 75 | 1020.3 | |
| 20260831005039 | 77 | 0.0 | 0.0 | 0.00 | 0.01 | 0.01 | 75 | 1020.3 | |
| 20260831004930 | 77 | 0.0 | 0.0 | 0.00 | 0.01 | 0.01 | 75 | 1020.2 | |
| 20260831004826 | 77 | 0.0 | 0.0 | 0.00 | 0.01 | 0.01 | 75 | 1020.3 | |
| 20260831004721 | 77 | 0.0 | 0.0 | 0.00 | 0.01 | 0.01 | 75 | 1020.3 | |
| 20260831004617 | 77 | 0.0 | 0.0 | 0.00 | 0.01 | 0.01 | 75 | 1020.3 | |
| 20260831004529 | 77 | 0.0 | 0.0 | 0.00 | 0.01 | 0.01 | 75 | 1020.1 | |
| 20260831004424 | 77 | 0.0 | 0.0 | 0.00 | 0.01 | 0.01 | 75 | 1020.2 | |
| 20260831004320 | 77 | 0.0 | 0.0 | 0.00 | 0.01 | 0.01 | 75 | 1020.3 | |
| 20260831004215 | 77 | 0.0 | 0.0 | 0.00 | 0.01 | 0.01 | 75 | 1020.3 | |
| 20260831004127 | 77 | 0.0 | 0.0 | 0.00 | 0.01 | 0.01 | 74 | 1020.2 | |
| 20260831004023 | 77 | 0.0 | 0.0 | 0.00 | 0.01 | 0.01 | 74 | 1020.2 | |
| 20260831003918 | 77 | 0.0 | 0.0 | 0.00 | 0.01 | 0.01 | 74 | 1020.2 | |
| 20260831003830 | 77 | 0.0 | 0.0 | 0.00 | 0.01 | 0.01 | 74 | 1020.2 | |
| 20260831003725 | 77 | 0.0 | 0.0 | 0.00 | 0.01 | 0.01 | 74 | 1020.2 | |
| 20260831003620 | 77 | 0.0 | 0.0 | 0.00 | 0.01 | 0.01 | 74 | 1020.2 | |
| 20260831003516 | 77 | 0.0 | 0.0 | 0.00 | 0.01 | 0.01 | 74 | 1020.2 | |
| 20260831003428 | 77 | 0.0 | 0.0 | 0.00 | 0.01 | 0.01 | 75 | 1020.1 | |
| 20260831003323 | 77 | 0.0 | 0.0 | 0.00 | 0.01 | 0.01 | 75 | 1020.0 | |
| 20260831003219 | 77 | 0.0 | 0.0 | 0.00 | 0.01 | 0.01 | 76 | 1020.0 | |
| 20260831003130 | 77 | 0.0 | 0.0 | 0.00 | 0.01 | 0.01 | 75 | 1020.1 | |
| 20260831003026 | 77 | 0.0 | 0.0 | 0.00 | 0.01 | 0.01 | 74 | 1020.0 | |
| 20260831002922 | 77 | 0.0 | 0.0 | 0.00 | 0.01 | 0.01 | 74 | 1020.1 | |
| 20260831002817 | 77 | 0.0 | 0.0 | 0.00 | 0.01 | 0.01 | 74 | 1020.1 | |
| 20260831002729 | 77 | 0.0 | 0.0 | 0.00 | 0.01 | 0.01 | 74 | 1019.9 | |
| 20260831002644 | 77 | 0.0 | 0.0 | 0.00 | 0.01 | 0.01 | 74 | 1019.9 | |
| 20260831002520 | 77 | 0.0 | 0.0 | 0.00 | 0.01 | 0.01 | 74 | 1019.9 | |
| 20260831002416 | 78 | 0.0 | 0.0 | 0.00 | 0.01 | 0.01 | 74 | 1020.1 | |
| 20260831002327 | 78 | 0.0 | 0.0 | 0.00 | 0.01 | 0.01 | 74 | 1020.1 | |
| 20260831002223 | 78 | 0.0 | 0.0 | 0.00 | 0.01 | 0.01 | 74 | 1020.0 | |
| 20260831002119 | 78 | 0.0 | 0.0 | 0.00 | 0.01 | 0.01 | 74 | 1020.0 | |
| 20260831002030 | 78 | 0.0 | 0.0 | 0.00 | 0.01 | 0.01 | 74 | 1019.9 | |
| 20260831001926 | 78 | 0.0 | 0.0 | 0.00 | 0.01 | 0.01 | 74 | 1020.1 | |
| 20260831001822 | 78 | 0.0 | 0.0 | 0.00 | 0.01 | 0.01 | 74 | 1020.1 | |
| 20260831001717 | 78 | 0.0 | 0.0 | 0.00 | 0.01 | 0.01 | 74 | 1020.4 | |
| 20260831001629 | 78 | 0.0 | 0.0 | 0.00 | 0.01 | 0.01 | 74 | 1020.1 | |
| 20260831001525 | 78 | 0.0 | 0.0 | 0.00 | 0.01 | 0.01 | 74 | 1020.0 | |
| 20260831001420 | 78 | 0.0 | 0.0 | 0.00 | 0.01 | 0.01 | 74 | 1019.9 | |
| 20260831001316 | 78 | 0.0 | 0.0 | 0.00 | 0.01 | 0.01 | 74 | 1020.1 | |
| 20260831001227 | 78 | 236 | 0.0 | 1.0 | 0.00 | 0.01 | 0.01 | 74 | 1020.0 |
| 20260831001203 | 78 | 0.0 | 0.0 | 0.00 | 0.01 | 0.01 | 74 | 1020.0 | |
| 20260831001018 | 78 | 0.0 | 0.0 | 0.00 | 0.01 | 0.01 | 74 | 1020.0 | |
| 20260831000930 | 78 | 0.0 | 0.0 | 0.00 | 0.01 | 0.01 | 74 | 1019.9 | |
| 20260831000825 | 78 | 0.0 | 0.0 | 0.00 | 0.01 | 0.01 | 74 | 1019.9 | |
| 20260831000721 | 78 | 0.0 | 0.0 | 0.00 | 0.01 | 0.01 | 74 | 1019.9 | |
| 20260831000617 | 78 | 0.0 | 0.0 | 0.00 | 0.01 | 0.01 | 73 | 1019.9 | |
| 20260831000528 | 78 | 0.0 | 0.0 | 0.00 | 0.01 | 0.01 | 73 | 1019.9 | |
| 20260831000425 | 78 | 0.0 | 0.0 | 0.00 | 0.01 | 0.01 | 73 | 1020.0 | |
| 20260831000320 | 78 | 0.0 | 0.0 | 0.00 | 0.01 | 0.01 | 73 | 1019.9 | |
| 20260831000215 | 78 | 0.0 | 0.0 | 0.00 | 0.01 | 0.01 | 73 | 1020.0 | |
| 20260831000127 | 78 | 0.0 | 0.0 | 0.00 | 0.01 | 0.01 | 73 | 1019.9 | |
| 20260831000022 | 78 | 0.0 | 0.0 | 0.00 | 0.01 | 0.01 | 73 | 1019.9 | |
| 20260830235918 | 78 | 0.0 | 0.0 | 0.00 | 0.01 | 0.01 | 73 | 1019.9 | |
| 20260830235829 | 78 | 0.0 | 0.0 | 0.00 | 0.01 | 0.01 | 73 | 1019.8 | |
| 20260830235745 | 78 | 0.0 | 0.0 | 0.00 | 0.01 | 0.01 | 73 | 1019.9 | |
| 20260830235621 | 78 | 0.0 | 0.0 | 0.00 | 0.01 | 0.01 | 73 | 1020.0 | |
| 20260830235516 | 78 | 0.0 | 0.0 | 0.00 | 0.01 | 0.01 | 73 | 1019.9 | |
| 20260830235428 | 78 | 0.0 | 0.0 | 0.00 | 0.01 | 0.01 | 73 | 1019.8 | |
| 20260830235324 | 78 | 0.0 | 0.0 | 0.00 | 0.01 | 0.01 | 73 | 1020.0 | |
| 20260830235219 | 78 | 0.0 | 0.0 | 0.00 | 0.01 | 0.01 | 73 | 1020.0 | |
| 20260830235130 | 78 | 0.0 | 0.0 | 0.00 | 0.01 | 0.01 | 73 | 1019.8 | |
| 20260830235026 | 78 | 0.0 | 0.0 | 0.00 | 0.01 | 0.01 | 73 | 1019.5 | |
| 20260830234941 | 78 | 0.0 | 0.0 | 0.00 | 0.01 | 0.01 | 74 | 1019.7 | |
| 20260830234817 | 78 | 236 | 0.0 | 1.0 | 0.00 | 0.01 | 0.01 | 74 | 1019.9 |
| 20260830234729 | 78 | 236 | 0.0 | 1.0 | 0.00 | 0.01 | 0.01 | 73 | 1019.7 |
| 20260830234644 | 78 | 0.0 | 0.0 | 0.00 | 0.01 | 0.01 | 73 | 1019.7 | |
| 20260830234519 | 78 | 0.0 | 0.0 | 0.00 | 0.01 | 0.01 | 73 | 1019.9 | |
| 20260830234431 | 78 | 0.0 | 0.0 | 0.00 | 0.01 | 0.01 | 73 | 1019.8 | |
| 20260830234326 | 78 | 0.0 | 0.0 | 0.00 | 0.01 | 0.01 | 74 | 1019.6 | |
| 20260830234242 | 79 | 236 | 0.0 | 1.0 | 0.00 | 0.01 | 0.01 | 73 | 1019.6 |
| 20260830234117 | 79 | 0.0 | 0.0 | 0.00 | 0.01 | 0.01 | 73 | 1019.5 | |
| 20260830234029 | 79 | 236 | 0.0 | 1.0 | 0.00 | 0.01 | 0.01 | 72 | 1019.5 |
| 20260830233925 | 79 | 0.0 | 0.0 | 0.00 | 0.01 | 0.01 | 71 | 1019.5 | |
| 20260830233900 | 79 | 0.0 | 0.0 | 0.00 | 0.01 | 0.01 | 71 | 1019.8 | |
| 20260830233716 | 79 | 0.0 | 0.0 | 0.00 | 0.01 | 0.01 | 71 | 1019.6 | |
| 20260830233628 | 79 | 0.0 | 0.0 | 0.00 | 0.01 | 0.01 | 71 | 1019.6 | |
| 20260830233523 | 79 | 0.0 | 0.0 | 0.00 | 0.01 | 0.01 | 71 | 1019.7 | |
| 20260830233419 | 79 | 0.0 | 0.0 | 0.00 | 0.01 | 0.01 | 71 | 1019.7 | |
| 20260830233331 | 79 | 0.0 | 0.0 | 0.00 | 0.01 | 0.01 | 71 | 1019.7 | |
| 20260830233226 | 79 | 0.0 | 0.0 | 0.00 | 0.01 | 0.01 | 71 | 1019.7 | |
| 20260830233142 | 79 | 0.0 | 0.0 | 0.00 | 0.01 | 0.01 | 71 | 1019.7 | |
| 20260830233017 | 79 | 0.0 | 0.0 | 0.00 | 0.01 | 0.01 | 71 | 1019.7 | |
| 20260830232929 | 79 | 0.0 | 0.0 | 0.00 | 0.01 | 0.01 | 71 | 1019.7 | |
| 20260830232844 | 79 | 0.0 | 0.0 | 0.00 | 0.01 | 0.01 | 71 | 1019.6 | |
| 20260830232720 | 79 | 0.0 | 0.0 | 0.00 | 0.01 | 0.01 | 71 | 1019.6 | |
| 20260830232615 | 79 | 0.0 | 0.0 | 0.00 | 0.01 | 0.01 | 71 | 1019.8 | |
| 20260830232527 | 79 | 0.0 | 0.0 | 0.00 | 0.01 | 0.01 | 72 | 1019.6 | |
| 20260830232423 | 79 | 0.0 | 0.0 | 0.00 | 0.01 | 0.01 | 72 | 1019.6 | |
| 20260830232318 | 79 | 0.0 | 0.0 | 0.00 | 0.01 | 0.01 | 72 | 1019.7 | |
| 20260830232230 | 79 | 0.0 | 0.0 | 0.00 | 0.01 | 0.01 | 72 | 1019.7 | |
| 20260830232125 | 79 | 0.0 | 0.0 | 0.00 | 0.01 | 0.01 | 72 | 1019.6 | |
| 20260830232021 | 79 | 0.0 | 0.0 | 0.00 | 0.01 | 0.01 | 72 | 1019.7 | |
| 20260830231916 | 80 | 0.0 | 0.0 | 0.00 | 0.01 | 0.01 | 72 | 1019.6 | |
| 20260830231828 | 80 | 0.0 | 0.0 | 0.00 | 0.01 | 0.01 | 72 | 1019.7 | |
| 20260830231724 | 80 | 0.0 | 0.0 | 0.00 | 0.01 | 0.01 | 71 | 1019.7 | |
| 20260830231619 | 80 | 0.0 | 0.0 | 0.00 | 0.01 | 0.01 | 71 | 1019.7 | |
| 20260830231531 | 80 | 0.0 | 0.0 | 0.00 | 0.01 | 0.01 | 70 | 1019.8 | |
| 20260830231426 | 80 | 0.0 | 0.0 | 0.00 | 0.01 | 0.01 | 70 | 1019.6 | |
| 20260830231322 | 80 | 0.0 | 0.0 | 0.00 | 0.01 | 0.01 | 70 | 1019.7 | |
| 20260830231217 | 80 | 0.0 | 0.0 | 0.00 | 0.01 | 0.01 | 70 | 1019.7 | |
| 20260830231129 | 80 | 0.0 | 0.0 | 0.00 | 0.01 | 0.01 | 70 | 1019.6 | |
| 20260830231025 | 80 | 0.0 | 0.0 | 0.00 | 0.01 | 0.01 | 70 | 1019.7 | |
| 20260830230920 | 80 | 0.0 | 0.0 | 0.00 | 0.01 | 0.01 | 70 | 1019.7 | |
| 20260830230816 | 80 | 0.0 | 0.0 | 0.00 | 0.01 | 0.01 | 71 | 1019.8 | |
| 20260830230728 | 80 | 0.0 | 0.0 | 0.00 | 0.01 | 0.01 | 71 | 1019.8 | |
| 20260830230703 | 80 | 0.0 | 0.0 | 0.00 | 0.01 | 0.01 | 71 | 1019.7 | |
| 20260830230519 | 80 | 0.0 | 0.0 | 0.00 | 0.01 | 0.01 | 70 | 1019.7 | |
| 20260830230430 | 80 | 0.0 | 0.0 | 0.00 | 0.01 | 0.01 | 70 | 1019.7 | |
| 20260830230328 | 80 | 0.0 | 0.0 | 0.00 | 0.01 | 0.01 | 70 | 1019.8 | |
| 20260830230222 | 80 | 0.0 | 0.0 | 0.00 | 0.01 | 0.01 | 70 | 1019.8 | |
| 20260830230117 | 80 | 0.0 | 0.0 | 0.00 | 0.01 | 0.01 | 70 | 1019.8 | |
| 20260830230029 | 80 | 0.0 | 0.0 | 0.00 | 0.01 | 0.01 | 70 | 1019.8 | |
| 20260830225925 | 80 | 0.0 | 0.0 | 0.00 | 0.01 | 0.01 | 70 | 1019.7 | |
| 20260830225820 | 80 | 0.0 | 0.0 | 0.00 | 0.01 | 0.01 | 70 | 1019.7 | |
| 20260830225716 | 80 | 0.0 | 0.0 | 0.00 | 0.01 | 0.01 | 70 | 1019.8 | |
| 20260830225647 | 80 | 0.0 | 0.0 | 0.00 | 0.01 | 0.01 | 70 | 1019.8 | |
| 20260830225523 | 80 | 0.0 | 0.0 | 0.00 | 0.01 | 0.01 | 70 | 1019.7 | |
| 20260830225419 | 80 | 0.0 | 0.0 | 0.00 | 0.01 | 0.01 | 70 | 1019.7 | |
| 20260830225330 | 80 | 0.0 | 0.0 | 0.00 | 0.01 | 0.01 | 72 | 1019.9 | |
| 20260830225226 | 81 | 0.0 | 0.0 | 0.00 | 0.01 | 0.01 | 71 | 1019.8 | |
| 20260830225122 | 81 | 0.0 | 0.0 | 0.00 | 0.01 | 0.01 | 69 | 1019.7 | |
| 20260830225017 | 81 | 0.0 | 0.0 | 0.00 | 0.01 | 0.01 | 69 | 1019.5 | |
| 20260830224949 | 81 | 0.0 | 0.0 | 0.00 | 0.01 | 0.01 | 70 | 1019.6 | |
| 20260830224844 | 81 | 0.0 | 0.0 | 0.00 | 0.01 | 0.01 | 70 | 1019.4 | |
| 20260830224720 | 81 | 0.0 | 0.0 | 0.00 | 0.01 | 0.01 | 69 | 1019.6 | |
| 20260830224616 | 81 | 0.0 | 0.0 | 0.00 | 0.01 | 0.01 | 69 | 1019.6 | |
| 20260830224527 | 81 | 236 | 0.0 | 1.0 | 0.00 | 0.01 | 0.01 | 69 | 1019.7 |
| 20260830224443 | 81 | 236 | 0.0 | 1.0 | 0.00 | 0.01 | 0.01 | 70 | 1019.6 |
| 20260830224319 | 81 | 237 | 0.0 | 1.0 | 0.00 | 0.01 | 0.01 | 69 | 1019.5 |
| 20260830224230 | 81 | 0.0 | 0.0 | 0.00 | 0.01 | 0.01 | 69 | 1019.6 | |
| 20260830224125 | 81 | 236 | 0.0 | 1.0 | 0.00 | 0.01 | 0.01 | 69 | 1019.8 |
| 20260830224021 | 81 | 0.0 | 0.0 | 0.00 | 0.01 | 0.01 | 69 | 1019.7 | |
| 20260830223916 | 81 | 0.0 | 0.0 | 0.00 | 0.01 | 0.01 | 69 | 1019.7 | |
| 20260830223848 | 81 | 236 | 1.0 | 3.0 | 0.00 | 0.01 | 0.01 | 70 | 1019.8 |
| 20260830223724 | 81 | 244 | 1.0 | 2.0 | 0.00 | 0.01 | 0.01 | 69 | 1019.8 |
| 20260830223619 | 81 | 247 | 1.0 | 2.0 | 0.00 | 0.01 | 0.01 | 69 | 1019.8 |
| 20260830223515 | 81 | 247 | 0.0 | 1.0 | 0.00 | 0.01 | 0.01 | 69 | 1019.7 |
| 20260830223427 | 81 | 0.0 | 0.0 | 0.00 | 0.01 | 0.01 | 69 | 1019.8 | |
| 20260830223342 | 81 | 247 | 0.0 | 1.0 | 0.00 | 0.01 | 0.01 | 69 | 1019.8 |
| 20260830223218 | 81 | 0.0 | 0.0 | 0.00 | 0.01 | 0.01 | 69 | 1019.6 | |
| 20260830223130 | 81 | 247 | 1.0 | 2.0 | 0.00 | 0.01 | 0.01 | 69 | 1019.8 |
| 20260830223025 | 82 | 247 | 1.0 | 1.0 | 0.00 | 0.01 | 0.01 | 69 | 1019.9 |
| 20260830222920 | 82 | 248 | 1.0 | 2.0 | 0.00 | 0.01 | 0.01 | 69 | 1019.9 |
| 20260830222816 | 82 | 248 | 1.0 | 2.0 | 0.00 | 0.01 | 0.01 | 69 | 1019.9 |
| 20260830222728 | 82 | 247 | 1.0 | 1.0 | 0.00 | 0.01 | 0.01 | 69 | 1019.9 |
| 20260830222643 | 82 | 248 | 0.0 | 1.0 | 0.00 | 0.01 | 0.01 | 68 | 1019.8 |
| 20260830222519 | 82 | 0.0 | 0.0 | 0.00 | 0.01 | 0.01 | 68 | 1019.8 | |
| 20260830222431 | 82 | 247 | 0.0 | 1.0 | 0.00 | 0.01 | 0.01 | 68 | 1019.7 |
| 20260830222326 | 82 | 247 | 0.0 | 1.0 | 0.00 | 0.01 | 0.01 | 68 | 1019.8 |
| 20260830222222 | 82 | 0.0 | 0.0 | 0.00 | 0.01 | 0.01 | 68 | 1019.7 | |
| 20260830222117 | 82 | 0.0 | 0.0 | 0.00 | 0.01 | 0.01 | 68 | 1019.6 | |
| 20260830222029 | 82 | 0.0 | 0.0 | 0.00 | 0.01 | 0.01 | 68 | 1019.8 | |
| 20260830221945 | 82 | 0.0 | 0.0 | 0.00 | 0.01 | 0.01 | 68 | 1019.8 | |
| 20260830221820 | 82 | 0.0 | 0.0 | 0.00 | 0.01 | 0.01 | 68 | 1019.7 | |
| 20260830221716 | 82 | 247 | 1.0 | 1.0 | 0.00 | 0.01 | 0.01 | 68 | 1019.8 |
| 20260830221628 | 82 | 247 | 2.0 | 2.0 | 0.00 | 0.01 | 0.01 | 68 | 1019.8 |
| 20260830221523 | 82 | 247 | 1.0 | 1.0 | 0.00 | 0.01 | 0.01 | 68 | 1019.8 |
| 20260830221418 | 82 | 247 | 1.0 | 1.0 | 0.00 | 0.01 | 0.01 | 68 | 1019.8 |
| 20260830221330 | 82 | 247 | 0.0 | 1.0 | 0.00 | 0.01 | 0.01 | 68 | 1019.7 |
| 20260830221226 | 82 | 247 | 0.0 | 1.0 | 0.00 | 0.01 | 0.01 | 67 | 1019.9 |
| 20260830221122 | 82 | 247 | 1.0 | 2.0 | 0.00 | 0.01 | 0.01 | 67 | 1019.8 |
| 20260830221017 | 82 | 0.0 | 0.0 | 0.00 | 0.01 | 0.01 | 67 | 1019.8 | |
| 20260830220929 | 82 | 247 | 1.0 | 1.0 | 0.00 | 0.01 | 0.01 | 67 | 1019.9 |
| 20260830220845 | 82 | 247 | 0.0 | 1.0 | 0.00 | 0.01 | 0.01 | 67 | 1019.8 |
| 20260830220720 | 82 | 247 | 1.0 | 2.0 | 0.00 | 0.01 | 0.01 | 67 | 1019.8 |
| 20260830220616 | 82 | 247 | 2.0 | 2.0 | 0.00 | 0.01 | 0.01 | 67 | 1019.8 |
| 20260830220527 | 82 | 247 | 1.0 | 2.0 | 0.00 | 0.01 | 0.01 | 67 | 1019.8 |
| 20260830220423 | 82 | 247 | 1.0 | 3.0 | 0.00 | 0.01 | 0.01 | 67 | 1019.8 |
| 20260830220318 | 83 | 0.0 | 0.0 | 0.00 | 0.01 | 0.01 | 67 | 1019.8 | |
| 20260830220230 | 83 | 248 | 0.0 | 1.0 | 0.00 | 0.01 | 0.01 | 67 | 1019.9 |
| 20260830220126 | 83 | 248 | 0.0 | 1.0 | 0.00 | 0.01 | 0.01 | 66 | 1020.0 |
| 20260830220021 | 83 | 248 | 1.0 | 1.0 | 0.00 | 0.01 | 0.01 | 66 | 1020.0 |
| 20260830215917 | 83 | 248 | 1.0 | 1.0 | 0.00 | 0.01 | 0.01 | 66 | 1020.1 |
| 20260830215828 | 83 | 248 | 1.0 | 2.0 | 0.00 | 0.01 | 0.01 | 66 | 1020.1 |
| 20260830215724 | 83 | 248 | 1.0 | 2.0 | 0.00 | 0.01 | 0.01 | 67 | 1020.1 |
| 20260830215620 | 83 | 248 | 0.0 | 1.0 | 0.00 | 0.01 | 0.01 | 66 | 1020.0 |
| 20260830215515 | 83 | 248 | 0.0 | 1.0 | 0.00 | 0.01 | 0.01 | 66 | 1020.2 |
| 20260830215426 | 83 | 248 | 1.0 | 1.0 | 0.00 | 0.01 | 0.01 | 66 | 1020.0 |
| 20260830215342 | 83 | 248 | 1.0 | 1.0 | 0.00 | 0.01 | 0.01 | 66 | 1020.0 |
| 20260830215218 | 83 | 0.0 | 0.0 | 0.00 | 0.01 | 0.01 | 66 | 1020.0 | |
| 20260830215149 | 83 | 248 | 0.0 | 1.0 | 0.00 | 0.01 | 0.01 | 66 | 1019.8 |
| 20260830215025 | 83 | 248 | 1.0 | 2.0 | 0.00 | 0.01 | 0.01 | 66 | 1019.7 |
| 20260830214920 | 83 | 248 | 0.0 | 1.0 | 0.00 | 0.01 | 0.01 | 66 | 1019.7 |
| 20260830214816 | 83 | 247 | 1.0 | 1.0 | 0.00 | 0.01 | 0.01 | 66 | 1019.7 |
| 20260830214748 | 83 | 247 | 0.0 | 1.0 | 0.00 | 0.01 | 0.01 | 66 | 1019.6 |
| 20260830214623 | 83 | 247 | 0.0 | 1.0 | 0.00 | 0.01 | 0.01 | 66 | 1019.8 |
| 20260830214519 | 84 | 248 | 0.0 | 1.0 | 0.00 | 0.01 | 0.01 | 66 | 1019.8 |
| 20260830214431 | 84 | 0.0 | 0.0 | 0.00 | 0.01 | 0.01 | 66 | 1019.9 | |
| 20260830214327 | 84 | 247 | 1.0 | 2.0 | 0.00 | 0.01 | 0.01 | 66 | 1019.8 |
| 20260830214221 | 84 | 247 | 0.0 | 2.0 | 0.00 | 0.01 | 0.01 | 66 | 1019.8 |
| 20260830214117 | 84 | 0.0 | 0.0 | 0.00 | 0.01 | 0.01 | 66 | 1019.8 | |
| 20260830214029 | 84 | 0.0 | 0.0 | 0.00 | 0.01 | 0.01 | 66 | 1019.9 | |
| 20260830213925 | 84 | 247 | 1.0 | 2.0 | 0.00 | 0.01 | 0.01 | 65 | 1019.8 |
| 20260830213900 | 84 | 0.0 | 0.0 | 0.00 | 0.01 | 0.01 | 66 | 1019.8 | |
| 20260830213736 | 84 | 0.0 | 0.0 | 0.00 | 0.01 | 0.01 | 66 | 1019.8 | |
| 20260830213627 | 84 | 0.0 | 0.0 | 0.00 | 0.01 | 0.01 | 66 | 1019.8 | |
| 20260830213523 | 84 | 247 | 0.0 | 1.0 | 0.00 | 0.01 | 0.01 | 66 | 1019.8 |
| 20260830213418 | 84 | 247 | 0.0 | 1.0 | 0.00 | 0.01 | 0.01 | 66 | 1019.8 |
| 20260830213330 | 84 | 247 | 0.0 | 1.0 | 0.00 | 0.01 | 0.01 | 66 | 1019.6 |
| 20260830213246 | 84 | 248 | 0.0 | 1.0 | 0.00 | 0.01 | 0.01 | 66 | 1019.7 |
| 20260830213121 | 84 | 247 | 1.0 | 1.0 | 0.00 | 0.01 | 0.01 | 66 | 1019.8 |
| 20260830213016 | 84 | 247 | 0.0 | 1.0 | 0.00 | 0.01 | 0.01 | 66 | 1019.7 |
| 20260830213008 | 84 | 0.0 | 0.0 | 0.00 | 0.01 | 0.01 | 66 | 1019.6 | |
| 20260830212844 | 84 | 247 | 0.0 | 1.0 | 0.00 | 0.01 | 0.01 | 66 | 1019.6 |
| 20260830212719 | 84 | 248 | 2.0 | 3.0 | 0.00 | 0.01 | 0.01 | 66 | 1019.6 |
| 20260830212631 | 84 | 211 | 1.0 | 3.0 | 0.00 | 0.01 | 0.01 | 66 | 1019.8 |
| 20260830212526 | 84 | 165 | 0.0 | 1.0 | 0.00 | 0.01 | 0.01 | 66 | 1019.7 |
| 20260830212422 | 84 | 167 | 1.0 | 2.0 | 0.00 | 0.01 | 0.01 | 66 | 1019.7 |
| 20260830212317 | 84 | 182 | 1.0 | 2.0 | 0.00 | 0.01 | 0.01 | 66 | 1019.9 |
| 20260830212229 | 84 | 184 | 0.0 | 1.0 | 0.00 | 0.01 | 0.01 | 66 | 1019.8 |
| 20260830212125 | 84 | 184 | 0.0 | 1.0 | 0.00 | 0.01 | 0.01 | 66 | 1019.7 |
| 20260830212020 | 84 | 184 | 0.0 | 1.0 | 0.00 | 0.01 | 0.01 | 66 | 1019.9 |
| 20260830211916 | 84 | 183 | 0.0 | 1.0 | 0.00 | 0.01 | 0.01 | 66 | 1019.7 |
| 20260830211827 | 84 | 183 | 0.0 | 1.0 | 0.00 | 0.01 | 0.01 | 66 | 1019.7 |
| 20260830211723 | 84 | 184 | 0.0 | 1.0 | 0.00 | 0.01 | 0.01 | 66 | 1019.6 |
| 20260830211639 | 84 | 184 | 0.0 | 1.0 | 0.00 | 0.01 | 0.01 | 66 | 1019.6 |
| 20260830211530 | 84 | 184 | 0.0 | 1.0 | 0.00 | 0.01 | 0.01 | 66 | 1019.7 |
| 20260830211426 | 84 | 184 | 0.0 | 1.0 | 0.00 | 0.01 | 0.01 | 66 | 1019.7 |
| 20260830211321 | 84 | 183 | 1.0 | 1.0 | 0.00 | 0.01 | 0.01 | 66 | 1019.7 |
| 20260830211217 | 84 | 184 | 0.0 | 1.0 | 0.00 | 0.01 | 0.01 | 66 | 1019.6 |
| 20260830211129 | 83 | 184 | 1.0 | 1.0 | 0.00 | 0.01 | 0.01 | 66 | 1019.6 |
| 20260830211024 | 83 | 183 | 0.0 | 1.0 | 0.00 | 0.01 | 0.01 | 66 | 1019.7 |
| 20260830210940 | 83 | 184 | 0.0 | 1.0 | 0.00 | 0.01 | 0.01 | 66 | 1019.7 |
| 20260830210816 | 83 | 209 | 2.0 | 2.0 | 0.00 | 0.01 | 0.01 | 66 | 1019.6 |
| 20260830210727 | 83 | 242 | 0.0 | 2.0 | 0.00 | 0.01 | 0.01 | 66 | 1019.7 |
| 20260830210623 | 83 | 241 | 1.0 | 2.0 | 0.00 | 0.01 | 0.01 | 67 | 1019.7 |
| 20260830210538 | 83 | 242 | 1.0 | 2.0 | 0.00 | 0.01 | 0.01 | 68 | 1019.7 |
| 20260830210430 | 83 | 242 | 0.0 | 2.0 | 0.00 | 0.01 | 0.01 | 68 | 1019.7 |
| 20260830210325 | 83 | 0.0 | 0.0 | 0.00 | 0.01 | 0.01 | 67 | 1019.6 | |
| 20260830210221 | 83 | 0.0 | 0.0 | 0.00 | 0.01 | 0.01 | 67 | 1019.9 | |
| 20260830210116 | 83 | 243 | 0.0 | 1.0 | 0.00 | 0.01 | 0.01 | 67 | 1019.9 |
| 20260830210028 | 83 | 244 | 1.0 | 1.0 | 0.00 | 0.01 | 0.01 | 67 | 1019.8 |
| 20260830205923 | 83 | 245 | 1.0 | 2.0 | 0.00 | 0.01 | 0.01 | 67 | 1019.7 |
| 20260830205839 | 83 | 247 | 2.0 | 3.0 | 0.00 | 0.01 | 0.01 | 68 | 1019.7 |
| 20260830205731 | 82 | 252 | 0.0 | 1.0 | 0.00 | 0.01 | 0.01 | 68 | 1019.8 |
| 20260830205626 | 82 | 0.0 | 0.0 | 0.00 | 0.01 | 0.01 | 67 | 1019.7 | |
| 20260830205522 | 82 | 252 | 1.0 | 3.0 | 0.00 | 0.01 | 0.01 | 67 | 1019.8 |
| 20260830205437 | 82 | 237 | 2.0 | 2.0 | 0.00 | 0.01 | 0.01 | 67 | 1019.8 |
| 20260830205329 | 82 | 177 | 1.0 | 3.0 | 0.00 | 0.01 | 0.01 | 67 | 1019.9 |
| 20260830205225 | 82 | 198 | 0.0 | 1.0 | 0.00 | 0.01 | 0.01 | 67 | 1019.8 |
| 20260830205120 | 82 | 198 | 0.0 | 1.0 | 0.00 | 0.01 | 0.01 | 67 | 1019.8 |
| 20260830205036 | 82 | 0.0 | 0.0 | 0.00 | 0.01 | 0.01 | 67 | 1019.9 | |
| 20260830204927 | 82 | 198 | 0.0 | 1.0 | 0.00 | 0.01 | 0.01 | 67 | 1019.9 |
| 20260830204822 | 82 | 198 | 0.0 | 1.0 | 0.00 | 0.01 | 0.01 | 67 | 1019.8 |
| 20260830204718 | 82 | 190 | 1.0 | 2.0 | 0.00 | 0.01 | 0.01 | 67 | 1019.9 |
| 20260830204629 | 82 | 181 | 0.0 | 1.0 | 0.00 | 0.01 | 0.01 | 67 | 1019.8 |
| 20260830204525 | 83 | 180 | 0.0 | 1.0 | 0.00 | 0.01 | 0.01 | 67 | 1019.8 |
| 20260830204421 | 83 | 180 | 1.0 | 2.0 | 0.00 | 0.01 | 0.01 | 66 | 1019.9 |
| 20260830204336 | 83 | 180 | 1.0 | 1.0 | 0.00 | 0.01 | 0.01 | 66 | 1020.0 |
| 20260830204228 | 83 | 180 | 1.0 | 1.0 | 0.00 | 0.01 | 0.01 | 66 | 1020.0 |
| 20260830204204 | 83 | 180 | 0.0 | 1.0 | 0.00 | 0.01 | 0.01 | 66 | 1020.0 |
| 20260830204019 | 83 | 180 | 1.0 | 2.0 | 0.00 | 0.01 | 0.01 | 66 | 1019.9 |
| 20260830203930 | 83 | 240 | 0.0 | 2.0 | 0.00 | 0.01 | 0.01 | 66 | 1020.1 |
| 20260830203826 | 83 | 246 | 1.0 | 2.0 | 0.00 | 0.01 | 0.01 | 66 | 1020.1 |
| 20260830203742 | 83 | 254 | 1.0 | 1.0 | 0.00 | 0.01 | 0.01 | 66 | 1020.1 |
| 20260830203617 | 83 | 254 | 0.0 | 1.0 | 0.00 | 0.01 | 0.01 | 66 | 1020.1 |
| 20260830203529 | 83 | 254 | 0.0 | 1.0 | 0.00 | 0.01 | 0.01 | 66 | 1020.1 |
| 20260830203504 | 83 | 254 | 1.0 | 2.0 | 0.00 | 0.01 | 0.01 | 66 | 1020.3 |
| 20260830203341 | 83 | 254 | 0.0 | 1.0 | 0.00 | 0.01 | 0.01 | 66 | 1020.0 |
| 20260830203236 | 83 | 254 | 1.0 | 1.0 | 0.00 | 0.01 | 0.01 | 66 | 1020.0 |
| 20260830203127 | 83 | 254 | 1.0 | 2.0 | 0.00 | 0.01 | 0.01 | 66 | 1020.1 |
| 20260830203022 | 83 | 255 | 1.0 | 1.0 | 0.00 | 0.01 | 0.01 | 66 | 1020.0 |
| 20260830202918 | 83 | 255 | 1.0 | 2.0 | 0.00 | 0.01 | 0.01 | 66 | 1020.0 |
| 20260830202829 | 83 | 255 | 1.0 | 1.0 | 0.00 | 0.01 | 0.01 | 66 | 1020.1 |
| 20260830202725 | 83 | 242 | 2.0 | 2.0 | 0.00 | 0.01 | 0.01 | 66 | 1020.1 |
| 20260830202641 | 82 | 153 | 0.0 | 1.0 | 0.00 | 0.01 | 0.01 | 66 | 1020.1 |
| 20260830202516 | 82 | 153 | 1.0 | 1.0 | 0.00 | 0.01 | 0.01 | 66 | 1019.9 |
| 20260830202448 | 82 | 155 | 0.0 | 1.0 | 0.00 | 0.01 | 0.01 | 66 | 1020.2 |
| 20260830202323 | 82 | 156 | 0.0 | 1.0 | 0.00 | 0.01 | 0.01 | 66 | 1020.1 |
| 20260830202219 | 83 | 155 | 2.0 | 3.0 | 0.00 | 0.01 | 0.01 | 66 | 1020.1 |
| 20260830202131 | 83 | 228 | 1.0 | 3.0 | 0.00 | 0.01 | 0.01 | 66 | 1020.3 |
| 20260830202026 | 83 | 220 | 2.0 | 4.0 | 0.00 | 0.01 | 0.01 | 66 | 1020.3 |
| 20260830201922 | 83 | 216 | 1.0 | 3.0 | 0.00 | 0.01 | 0.01 | 66 | 1020.2 |
| 20260830201818 | 83 | 233 | 2.0 | 3.0 | 0.00 | 0.01 | 0.01 | 65 | 1020.2 |
| 20260830201729 | 83 | 236 | 2.0 | 4.0 | 0.00 | 0.01 | 0.01 | 66 | 1020.2 |
| 20260830201645 | 83 | 233 | 4.0 | 7.0 | 0.00 | 0.01 | 0.01 | 65 | 1020.1 |
| 20260830201520 | 83 | 260 | 4.0 | 7.0 | 0.00 | 0.01 | 0.01 | 65 | 1020.2 |
| 20260830201416 | 83 | 254 | 5.0 | 7.0 | 0.00 | 0.01 | 0.01 | 66 | 1020.3 |
| 20260830201328 | 83 | 242 | 3.0 | 4.0 | 0.00 | 0.01 | 0.01 | 67 | 1020.3 |
| 20260830201223 | 83 | 247 | 2.0 | 4.0 | 0.00 | 0.01 | 0.01 | 66 | 1020.3 |
| 20260830201119 | 82 | 251 | 2.0 | 3.0 | 0.00 | 0.01 | 0.01 | 66 | 1020.3 |
| 20260830201031 | 82 | 234 | 2.0 | 6.0 | 0.00 | 0.01 | 0.01 | 66 | 1020.2 |
| 20260830200926 | 83 | 235 | 3.0 | 3.0 | 0.00 | 0.01 | 0.01 | 65 | 1020.3 |
| 20260830200822 | 83 | 233 | 3.0 | 4.0 | 0.00 | 0.01 | 0.01 | 65 | 1020.3 |
| 20260830200718 | 83 | 238 | 3.0 | 4.0 | 0.00 | 0.01 | 0.01 | 65 | 1020.4 |
| 20260830200629 | 83 | 239 | 2.0 | 4.0 | 0.00 | 0.01 | 0.01 | 65 | 1020.1 |
| 20260830200525 | 83 | 233 | 3.0 | 6.0 | 0.00 | 0.01 | 0.01 | 65 | 1020.2 |
| 20260830200420 | 83 | 258 | 2.0 | 4.0 | 0.00 | 0.01 | 0.01 | 65 | 1020.2 |
| 20260830200316 | 83 | 255 | 1.0 | 2.0 | 0.00 | 0.01 | 0.01 | 66 | 1020.3 |
| 20260830200227 | 83 | 255 | 1.0 | 1.0 | 0.00 | 0.01 | 0.01 | 66 | 1020.2 |
| 20260830200123 | 83 | 258 | 1.0 | 3.0 | 0.00 | 0.01 | 0.01 | 66 | 1020.2 |
| 20260830200019 | 83 | 269 | 1.0 | 2.0 | 0.00 | 0.01 | 0.01 | 66 | 1020.5 |
| 20260830195930 | 83 | 282 | 2.0 | 7.0 | 0.00 | 0.01 | 0.01 | 66 | 1020.4 |
| 20260830195826 | 83 | 247 | 2.0 | 3.0 | 0.00 | 0.01 | 0.01 | 66 | 1020.4 |
| 20260830195741 | 83 | 252 | 2.0 | 3.0 | 0.00 | 0.01 | 0.01 | 65 | 1020.5 |
| 20260830195617 | 83 | 257 | 2.0 | 3.0 | 0.00 | 0.01 | 0.01 | 65 | 1020.3 |
| 20260830195529 | 83 | 245 | 3.0 | 4.0 | 0.00 | 0.01 | 0.01 | 65 | 1020.4 |
| 20260830195424 | 83 | 272 | 3.0 | 4.0 | 0.00 | 0.01 | 0.01 | 66 | 1020.2 |
| 20260830195320 | 83 | 245 | 3.0 | 4.0 | 0.00 | 0.01 | 0.01 | 66 | 1020.4 |
| 20260830195215 | 83 | 257 | 1.0 | 1.0 | 0.00 | 0.01 | 0.01 | 67 | 1020.6 |
| 20260830195127 | 82 | 256 | 0.0 | 1.0 | 0.00 | 0.01 | 0.01 | 67 | 1020.5 |
| 20260830195022 | 82 | 253 | 1.0 | 2.0 | 0.00 | 0.01 | 0.01 | 67 | 1020.5 |
| 20260830194918 | 82 | 246 | 1.0 | 4.0 | 0.00 | 0.01 | 0.01 | 67 | 1020.5 |
| 20260830194829 | 82 | 243 | 0.0 | 1.0 | 0.00 | 0.01 | 0.01 | 67 | 1020.4 |
| 20260830194725 | 82 | 243 | 1.0 | 2.0 | 0.00 | 0.01 | 0.01 | 67 | 1020.4 |
| 20260830194621 | 82 | 244 | 2.0 | 3.0 | 0.00 | 0.01 | 0.01 | 67 | 1020.3 |
| 20260830194536 | 82 | 245 | 2.0 | 3.0 | 0.00 | 0.01 | 0.01 | 67 | 1020.4 |
| 20260830194428 | 82 | 265 | 1.0 | 2.0 | 0.00 | 0.01 | 0.01 | 66 | 1020.6 |
| 20260830194323 | 82 | 253 | 2.0 | 3.0 | 0.00 | 0.01 | 0.01 | 67 | 1020.3 |
| 20260830194219 | 82 | 247 | 1.0 | 1.0 | 0.00 | 0.01 | 0.01 | 67 | 1020.4 |
| 20260830194131 | 82 | 249 | 0.0 | 1.0 | 0.00 | 0.01 | 0.01 | 67 | 1020.5 |
| 20260830194027 | 82 | 249 | 1.0 | 1.0 | 0.00 | 0.01 | 0.01 | 68 | 1020.5 |
| 20260830193922 | 82 | 242 | 2.0 | 4.0 | 0.00 | 0.01 | 0.01 | 67 | 1020.5 |
| 20260830193818 | 82 | 224 | 1.0 | 1.0 | 0.00 | 0.01 | 0.01 | 67 | 1020.5 |
| 20260830193729 | 82 | 223 | 1.0 | 1.0 | 0.00 | 0.01 | 0.01 | 67 | 1020.5 |
| 20260830193625 | 82 | 0.0 | 0.0 | 0.00 | 0.01 | 0.01 | 67 | 1020.5 | |
| 20260830193520 | 82 | 224 | 0.0 | 1.0 | 0.00 | 0.01 | 0.01 | 67 | 1020.6 |
| 20260830193416 | 82 | 223 | 0.0 | 1.0 | 0.00 | 0.01 | 0.01 | 66 | 1020.6 |
| 20260830193328 | 82 | 224 | 1.0 | 1.0 | 0.00 | 0.01 | 0.01 | 67 | 1020.7 |
| 20260830193223 | 82 | 224 | 1.0 | 2.0 | 0.00 | 0.01 | 0.01 | 66 | 1020.7 |
| 20260830193119 | 82 | 225 | 1.0 | 2.0 | 0.00 | 0.01 | 0.01 | 66 | 1020.8 |
| 20260830193051 | 82 | 231 | 1.0 | 1.0 | 0.00 | 0.01 | 0.01 | 66 | 1020.5 |
| 20260830192946 | 82 | 232 | 1.0 | 1.0 | 0.00 | 0.01 | 0.01 | 66 | 1020.6 |
| 20260830192902 | 82 | 237 | 1.0 | 1.0 | 0.00 | 0.01 | 0.01 | 66 | 1020.5 |
| 20260830192717 | 82 | 242 | 0.0 | 1.0 | 0.00 | 0.01 | 0.01 | 66 | 1020.5 |
| 20260830192629 | 82 | 239 | 2.0 | 4.0 | 0.00 | 0.01 | 0.01 | 66 | 1020.6 |
| 20260830192524 | 81 | 236 | 0.0 | 1.0 | 0.00 | 0.01 | 0.01 | 66 | 1020.6 |
| 20260830192420 | 81 | 236 | 0.0 | 1.0 | 0.00 | 0.01 | 0.01 | 66 | 1020.7 |
| 20260830192316 | 81 | 236 | 0.0 | 1.0 | 0.00 | 0.01 | 0.01 | 66 | 1020.8 |
| 20260830192227 | 81 | 236 | 0.0 | 1.0 | 0.00 | 0.01 | 0.01 | 66 | 1020.6 |
| 20260830192123 | 81 | 236 | 0.0 | 1.0 | 0.00 | 0.01 | 0.01 | 66 | 1020.8 |
| 20260830192019 | 81 | 0.0 | 0.0 | 0.00 | 0.01 | 0.01 | 66 | 1020.9 | |
| 20260830191930 | 81 | 236 | 1.0 | 2.0 | 0.00 | 0.01 | 0.01 | 66 | 1020.9 |
| 20260830191826 | 81 | 236 | 1.0 | 2.0 | 0.00 | 0.01 | 0.01 | 65 | 1021.0 |
| 20260830191742 | 82 | 236 | 2.0 | 2.0 | 0.00 | 0.01 | 0.01 | 65 | 1020.9 |
| 20260830191617 | 82 | 237 | 1.0 | 3.0 | 0.00 | 0.01 | 0.01 | 66 | 1021.0 |
| 20260830191529 | 81 | 239 | 1.0 | 1.0 | 0.00 | 0.01 | 0.01 | 66 | 1021.0 |
| 20260830191425 | 81 | 0.0 | 0.0 | 0.00 | 0.01 | 0.01 | 66 | 1021.0 | |
| 20260830191320 | 81 | 239 | 0.0 | 1.0 | 0.00 | 0.01 | 0.01 | 66 | 1021.0 |
| 20260830191216 | 81 | 239 | 1.0 | 2.0 | 0.00 | 0.01 | 0.01 | 66 | 1020.9 |
| 20260830191147 | 81 | 239 | 0.0 | 1.0 | 0.00 | 0.01 | 0.01 | 66 | 1020.9 |
| 20260830191022 | 81 | 239 | 1.0 | 1.0 | 0.00 | 0.01 | 0.01 | 66 | 1021.0 |
| 20260830190918 | 81 | 239 | 1.0 | 1.0 | 0.00 | 0.01 | 0.01 | 66 | 1021.0 |
| 20260830190830 | 81 | 239 | 1.0 | 1.0 | 0.00 | 0.01 | 0.01 | 66 | 1020.9 |
| 20260830190726 | 81 | 239 | 1.0 | 1.0 | 0.00 | 0.01 | 0.01 | 66 | 1020.9 |
| 20260830190621 | 81 | 239 | 0.0 | 1.0 | 0.00 | 0.01 | 0.01 | 65 | 1021.1 |
| 20260830190537 | 81 | 0.0 | 0.0 | 0.00 | 0.01 | 0.01 | 65 | 1021.0 | |
| 20260830190428 | 81 | 0.0 | 0.0 | 0.00 | 0.01 | 0.01 | 65 | 1021.1 | |
| 20260830190324 | 81 | 239 | 0.0 | 1.0 | 0.00 | 0.01 | 0.01 | 65 | 1021.1 |
| 20260830190219 | 81 | 239 | 0.0 | 1.0 | 0.00 | 0.01 | 0.01 | 65 | 1021.1 |
| 20260830190131 | 81 | 239 | 0.0 | 1.0 | 0.00 | 0.01 | 0.01 | 65 | 1021.2 |
| 20260830190027 | 81 | 0.0 | 0.0 | 0.00 | 0.01 | 0.01 | 65 | 1021.1 | |
| 20260830185922 | 81 | 0.0 | 0.0 | 0.00 | 0.01 | 0.01 | 65 | 1021.3 | |
| 20260830185818 | 81 | 0.0 | 0.0 | 0.00 | 0.01 | 0.01 | 65 | 1021.2 | |
| 20260830185729 | 81 | 0.0 | 0.0 | 0.00 | 0.01 | 0.01 | 65 | 1021.3 | |
| 20260830185625 | 81 | 0.0 | 0.0 | 0.00 | 0.01 | 0.01 | 64 | 1021.2 | |
| 20260830185521 | 82 | 239 | 0.0 | 1.0 | 0.00 | 0.01 | 0.01 | 64 | 1021.4 |
| 20260830185416 | 82 | 239 | 0.0 | 1.0 | 0.00 | 0.01 | 0.01 | 64 | 1021.2 |
| 20260830185328 | 82 | 239 | 1.0 | 1.0 | 0.00 | 0.01 | 0.01 | 63 | 1021.3 |
| 20260830185224 | 82 | 239 | 2.0 | 3.0 | 0.00 | 0.01 | 0.01 | 63 | 1021.3 |
| 20260830185119 | 82 | 241 | 2.0 | 3.0 | 0.00 | 0.01 | 0.01 | 63 | 1021.4 |
| 20260830185030 | 82 | 244 | 1.0 | 2.0 | 0.00 | 0.01 | 0.01 | 63 | 1021.3 |
| 20260830184926 | 82 | 244 | 1.0 | 1.0 | 0.00 | 0.01 | 0.01 | 63 | 1021.2 |
| 20260830184822 | 82 | 235 | 3.0 | 4.0 | 0.00 | 0.01 | 0.01 | 63 | 1021.4 |
| 20260830184737 | 83 | 237 | 3.0 | 4.0 | 0.00 | 0.01 | 0.01 | 63 | 1021.4 |
| 20260830184629 | 83 | 244 | 2.0 | 3.0 | 0.00 | 0.01 | 0.01 | 63 | 1021.5 |
| 20260830184524 | 83 | 247 | 1.0 | 2.0 | 0.00 | 0.01 | 0.01 | 63 | 1021.4 |
| 20260830184420 | 83 | 244 | 0.0 | 1.0 | 0.00 | 0.01 | 0.01 | 63 | 1021.5 |
| 20260830184316 | 83 | 244 | 2.0 | 4.0 | 0.00 | 0.01 | 0.01 | 62 | 1021.5 |
| 20260830184247 | 83 | 240 | 2.0 | 4.0 | 0.00 | 0.01 | 0.01 | 63 | 1021.4 |
| 20260830184123 | 83 | 245 | 2.0 | 2.0 | 0.00 | 0.01 | 0.01 | 63 | 1021.4 |
| 20260830184018 | 83 | 246 | 2.0 | 3.0 | 0.00 | 0.01 | 0.01 | 63 | 1021.3 |
| 20260830183930 | 83 | 219 | 1.0 | 2.0 | 0.00 | 0.01 | 0.01 | 63 | 1021.4 |
| 20260830183845 | 83 | 211 | 1.0 | 3.0 | 0.00 | 0.01 | 0.01 | 63 | 1021.4 |
| 20260830183721 | 83 | 239 | 2.0 | 3.0 | 0.00 | 0.01 | 0.01 | 64 | 1021.4 |
| 20260830183617 | 83 | 246 | 1.0 | 1.0 | 0.00 | 0.01 | 0.01 | 64 | 1021.4 |
| 20260830183548 | 83 | 246 | 0.0 | 1.0 | 0.00 | 0.01 | 0.01 | 63 | 1021.6 |
| 20260830183424 | 83 | 246 | 1.0 | 1.0 | 0.00 | 0.01 | 0.01 | 63 | 1021.5 |
| 20260830183320 | 83 | 245 | 2.0 | 3.0 | 0.00 | 0.01 | 0.01 | 62 | 1021.4 |
| 20260830183231 | 83 | 241 | 2.0 | 2.0 | 0.00 | 0.01 | 0.01 | 62 | 1021.5 |
| 20260830183127 | 83 | 246 | 2.0 | 3.0 | 0.00 | 0.01 | 0.01 | 63 | 1021.5 |
| 20260830183022 | 83 | 257 | 1.0 | 2.0 | 0.00 | 0.01 | 0.01 | 63 | 1021.5 |
| 20260830182917 | 83 | 259 | 1.0 | 2.0 | 0.00 | 0.01 | 0.01 | 63 | 1021.5 |
| 20260830182829 | 83 | 259 | 1.0 | 2.0 | 0.00 | 0.01 | 0.01 | 63 | 1021.4 |
| 20260830182724 | 83 | 211 | 1.0 | 2.0 | 0.00 | 0.01 | 0.01 | 64 | 1021.6 |
| 20260830182640 | 83 | 191 | 1.0 | 2.0 | 0.00 | 0.01 | 0.01 | 63 | 1021.6 |
| 20260830182516 | 83 | 166 | 0.0 | 1.0 | 0.00 | 0.01 | 0.01 | 62 | 1021.7 |
| 20260830182427 | 83 | 181 | 1.0 | 2.0 | 0.00 | 0.01 | 0.01 | 63 | 1021.5 |
| 20260830182323 | 83 | 229 | 2.0 | 4.0 | 0.00 | 0.01 | 0.01 | 62 | 1021.5 |
| 20260830182218 | 83 | 248 | 1.0 | 2.0 | 0.00 | 0.01 | 0.01 | 63 | 1021.5 |
| 20260830182130 | 83 | 246 | 1.0 | 4.0 | 0.00 | 0.01 | 0.01 | 62 | 1021.5 |
| 20260830182025 | 83 | 247 | 2.0 | 4.0 | 0.00 | 0.01 | 0.01 | 62 | 1021.5 |
| 20260830181920 | 83 | 248 | 2.0 | 4.0 | 0.00 | 0.01 | 0.01 | 63 | 1021.5 |
| 20260830181816 | 83 | 223 | 1.0 | 1.0 | 0.00 | 0.01 | 0.01 | 63 | 1021.5 |
| 20260830181728 | 83 | 223 | 1.0 | 1.0 | 0.00 | 0.01 | 0.01 | 63 | 1021.4 |
| 20260830181623 | 83 | 230 | 2.0 | 4.0 | 0.00 | 0.01 | 0.01 | 63 | 1021.5 |
| 20260830181519 | 83 | 238 | 2.0 | 3.0 | 0.00 | 0.01 | 0.01 | 62 | 1021.5 |
| 20260830181431 | 83 | 239 | 2.0 | 4.0 | 0.00 | 0.01 | 0.01 | 63 | 1021.7 |
| 20260830181326 | 83 | 164 | 2.0 | 3.0 | 0.00 | 0.01 | 0.01 | 64 | 1021.5 |
| 20260830181222 | 83 | 208 | 0.0 | 1.0 | 0.00 | 0.01 | 0.01 | 64 | 1021.5 |
| 20260830181137 | 83 | 208 | 1.0 | 1.0 | 0.00 | 0.01 | 0.01 | 64 | 1021.5 |
| 20260830181029 | 83 | 186 | 2.0 | 4.0 | 0.00 | 0.01 | 0.01 | 63 | 1021.6 |
| 20260830180924 | 83 | 190 | 2.0 | 2.0 | 0.00 | 0.01 | 0.01 | 64 | 1021.6 |
| 20260830180820 | 83 | 247 | 3.0 | 4.0 | 0.00 | 0.01 | 0.01 | 64 | 1021.8 |
| 20260830180715 | 83 | 203 | 0.0 | 2.0 | 0.00 | 0.01 | 0.01 | 64 | 1021.7 |
| 20260830180647 | 83 | 216 | 0.0 | 2.0 | 0.00 | 0.01 | 0.01 | 64 | 1021.6 |
| 20260830180522 | 83 | 224 | 1.0 | 3.0 | 0.00 | 0.01 | 0.01 | 64 | 1021.5 |
| 20260830180418 | 82 | 234 | 1.0 | 3.0 | 0.00 | 0.01 | 0.01 | 65 | 1021.7 |
| 20260830180330 | 82 | 217 | 0.0 | 1.0 | 0.00 | 0.01 | 0.01 | 66 | 1021.6 |
| 20260830180225 | 82 | 219 | 1.0 | 1.0 | 0.00 | 0.01 | 0.01 | 66 | 1021.5 |
| 20260830180121 | 82 | 246 | 1.0 | 2.0 | 0.00 | 0.01 | 0.01 | 65 | 1021.5 |
| 20260830180017 | 82 | 248 | 2.0 | 3.0 | 0.00 | 0.01 | 0.01 | 65 | 1021.6 |
| 20260830175948 | 82 | 161 | 1.0 | 2.0 | 0.00 | 0.01 | 0.01 | 65 | 1021.7 |
| 20260830175824 | 82 | 243 | 3.0 | 6.0 | 0.00 | 0.01 | 0.01 | 65 | 1021.7 |
| 20260830175720 | 82 | 242 | 2.0 | 4.0 | 0.00 | 0.01 | 0.01 | 64 | 1021.8 |
| 20260830175615 | 82 | 183 | 2.0 | 4.0 | 0.00 | 0.01 | 0.01 | 65 | 1022.0 |
| 20260830175527 | 82 | 248 | 2.0 | 3.0 | 0.00 | 0.01 | 0.01 | 65 | 1021.7 |
| 20260830175422 | 82 | 246 | 2.0 | 3.0 | 0.00 | 0.01 | 0.01 | 65 | 1021.9 |
| 20260830175318 | 82 | 238 | 2.0 | 3.0 | 0.00 | 0.01 | 0.01 | 65 | 1021.9 |
| 20260830175229 | 82 | 238 | 3.0 | 4.0 | 0.00 | 0.01 | 0.01 | 65 | 1022.0 |
| 20260830175145 | 82 | 240 | 1.0 | 2.0 | 0.00 | 0.01 | 0.01 | 65 | 1021.8 |
| 20260830175020 | 82 | 223 | 0.0 | 1.0 | 0.00 | 0.01 | 0.01 | 65 | 1021.8 |
| 20260830174936 | 82 | 224 | 1.0 | 3.0 | 0.00 | 0.01 | 0.01 | 65 | 1021.9 |
| 20260830174827 | 82 | 235 | 2.0 | 3.0 | 0.00 | 0.01 | 0.01 | 65 | 1022.1 |
| 20260830174723 | 82 | 225 | 0.0 | 1.0 | 0.00 | 0.01 | 0.01 | 64 | 1022.0 |
| 20260830174618 | 82 | 0.0 | 0.0 | 0.00 | 0.01 | 0.01 | 63 | 1021.9 | |
| 20260830174530 | 82 | 227 | 2.0 | 6.0 | 0.00 | 0.01 | 0.01 | 64 | 1022.0 |
| 20260830174426 | 82 | 234 | 3.0 | 6.0 | 0.00 | 0.01 | 0.01 | 65 | 1022.1 |
| 20260830174321 | 82 | 237 | 1.0 | 2.0 | 0.00 | 0.01 | 0.01 | 65 | 1022.1 |
| 20260830174217 | 82 | 237 | 2.0 | 2.0 | 0.00 | 0.01 | 0.01 | 65 | 1021.9 |
| 20260830174128 | 82 | 228 | 1.0 | 3.0 | 0.00 | 0.01 | 0.01 | 65 | 1022.0 |
| 20260830174024 | 82 | 209 | 0.0 | 1.0 | 0.00 | 0.01 | 0.01 | 65 | 1021.9 |
| 20260830173920 | 82 | 209 | 0.0 | 1.0 | 0.00 | 0.01 | 0.01 | 65 | 1022.0 |
| 20260830173815 | 82 | 214 | 1.0 | 1.0 | 0.00 | 0.01 | 0.01 | 65 | 1022.0 |
| 20260830173727 | 82 | 216 | 1.0 | 1.0 | 0.00 | 0.01 | 0.01 | 65 | 1022.0 |
| 20260830173622 | 82 | 225 | 1.0 | 2.0 | 0.00 | 0.01 | 0.01 | 66 | 1022.0 |
| 20260830173558 | 82 | 231 | 1.0 | 1.0 | 0.00 | 0.01 | 0.01 | 65 | 1022.0 |
| 20260830173450 | 81 | 231 | 1.0 | 1.0 | 0.00 | 0.01 | 0.01 | 66 | 1022.1 |
| 20260830173325 | 81 | 238 | 1.0 | 2.0 | 0.00 | 0.01 | 0.01 | 67 | 1022.0 |
| 20260830173221 | 81 | 239 | 2.0 | 3.0 | 0.00 | 0.01 | 0.01 | 66 | 1022.0 |
| 20260830173116 | 81 | 228 | 0.0 | 2.0 | 0.00 | 0.01 | 0.01 | 66 | 1022.3 |
| 20260830173028 | 81 | 226 | 1.0 | 1.0 | 0.00 | 0.01 | 0.01 | 66 | 1022.2 |
| 20260830172924 | 81 | 226 | 2.0 | 3.0 | 0.00 | 0.01 | 0.01 | 66 | 1022.2 |
| 20260830172819 | 81 | 281 | 3.0 | 7.0 | 0.00 | 0.01 | 0.01 | 66 | 1022.2 |
| 20260830172731 | 81 | 280 | 2.0 | 4.0 | 0.00 | 0.01 | 0.01 | 66 | 1022.0 |
| 20260830172646 | 81 | 238 | 1.0 | 3.0 | 0.00 | 0.01 | 0.01 | 66 | 1022.2 |
| 20260830172522 | 81 | 232 | 2.0 | 3.0 | 0.00 | 0.01 | 0.01 | 65 | 1022.1 |
| 20260830172417 | 81 | 226 | 1.0 | 4.0 | 0.00 | 0.01 | 0.01 | 66 | 1022.0 |
| 20260830172329 | 81 | 160 | 1.0 | 2.0 | 0.00 | 0.01 | 0.01 | 66 | 1022.1 |
| 20260830172225 | 81 | 160 | 1.0 | 3.0 | 0.00 | 0.01 | 0.01 | 66 | 1022.1 |
| 20260830172120 | 81 | 159 | 1.0 | 2.0 | 0.00 | 0.01 | 0.01 | 66 | 1022.3 |
| 20260830172056 | 81 | 157 | 1.0 | 3.0 | 0.00 | 0.01 | 0.01 | 66 | 1022.2 |
| 20260830171927 | 81 | 174 | 1.0 | 2.0 | 0.00 | 0.01 | 0.01 | 66 | 1022.3 |
| 20260830171842 | 81 | 186 | 0.0 | 2.0 | 0.00 | 0.01 | 0.01 | 66 | 1022.3 |
| 20260830171718 | 80 | 219 | 0.0 | 1.0 | 0.00 | 0.01 | 0.01 | 66 | 1022.3 |
| 20260830171630 | 80 | 218 | 1.0 | 2.0 | 0.00 | 0.01 | 0.01 | 66 | 1022.3 |
| 20260830171525 | 81 | 233 | 1.0 | 2.0 | 0.00 | 0.01 | 0.01 | 65 | 1022.2 |
| 20260830171421 | 80 | 257 | 2.0 | 3.0 | 0.00 | 0.01 | 0.01 | 65 | 1022.2 |
| 20260830171317 | 81 | 246 | 4.0 | 7.0 | 0.00 | 0.01 | 0.01 | 66 | 1022.2 |
| 20260830171308 | 81 | 247 | 4.0 | 6.0 | 0.00 | 0.01 | 0.01 | 66 | 1022.3 |
| 20260830171144 | 81 | 242 | 3.0 | 4.0 | 0.00 | 0.01 | 0.01 | 66 | 1022.3 |
| 20260830171039 | 81 | 175 | 2.0 | 3.0 | 0.00 | 0.01 | 0.01 | 66 | 1022.3 |
| 20260830170931 | 81 | 209 | 3.0 | 6.0 | 0.00 | 0.01 | 0.01 | 66 | 1022.4 |
| 20260830170827 | 81 | 144 | 1.0 | 3.0 | 0.00 | 0.01 | 0.01 | 66 | 1022.2 |
| 20260830170722 | 80 | 171 | 1.0 | 1.0 | 0.00 | 0.01 | 0.01 | 67 | 1022.2 |
| 20260830170617 | 80 | 175 | 1.0 | 3.0 | 0.00 | 0.01 | 0.01 | 67 | 1022.4 |
| 20260830170529 | 80 | 228 | 2.0 | 2.0 | 0.00 | 0.01 | 0.01 | 67 | 1022.4 |
| 20260830170425 | 80 | 242 | 2.0 | 3.0 | 0.00 | 0.01 | 0.01 | 67 | 1022.3 |
| 20260830170320 | 80 | 195 | 1.0 | 2.0 | 0.00 | 0.01 | 0.01 | 67 | 1022.3 |
| 20260830170216 | 80 | 194 | 1.0 | 2.0 | 0.00 | 0.01 | 0.01 | 67 | 1022.3 |
| 20260830170128 | 80 | 202 | 1.0 | 2.0 | 0.00 | 0.01 | 0.01 | 67 | 1022.3 |
| 20260830170023 | 80 | 165 | 0.0 | 1.0 | 0.00 | 0.01 | 0.01 | 66 | 1022.3 |
| 20260830165919 | 80 | 166 | 1.0 | 3.0 | 0.00 | 0.01 | 0.01 | 67 | 1022.3 |
| 20260830165831 | 80 | 129 | 1.0 | 1.0 | 0.00 | 0.01 | 0.01 | 68 | 1022.3 |
| 20260830165726 | 80 | 137 | 1.0 | 2.0 | 0.00 | 0.01 | 0.01 | 67 | 1022.5 |
| 20260830165642 | 80 | 261 | 2.0 | 4.0 | 0.00 | 0.01 | 0.01 | 66 | 1022.5 |
| 20260830165517 | 80 | 155 | 1.0 | 2.0 | 0.00 | 0.01 | 0.01 | 67 | 1022.5 |
| 20260830165429 | 80 | 181 | 2.0 | 3.0 | 0.00 | 0.01 | 0.01 | 68 | 1022.4 |
| 20260830165325 | 80 | 219 | 2.0 | 3.0 | 0.00 | 0.01 | 0.01 | 69 | 1022.5 |
| 20260830165220 | 80 | 178 | 1.0 | 1.0 | 0.00 | 0.01 | 0.01 | 69 | 1022.5 |
| 20260830165116 | 80 | 178 | 1.0 | 1.0 | 0.00 | 0.01 | 0.01 | 69 | 1022.2 |
| 20260830165048 | 79 | 208 | 1.0 | 2.0 | 0.00 | 0.01 | 0.01 | 69 | 1022.4 |
| 20260830164943 | 79 | 227 | 0.0 | 2.0 | 0.00 | 0.01 | 0.01 | 69 | 1022.4 |
| 20260830164819 | 79 | 227 | 2.0 | 2.0 | 0.00 | 0.01 | 0.01 | 70 | 1022.5 |
| 20260830164730 | 79 | 219 | 1.0 | 2.0 | 0.00 | 0.01 | 0.01 | 70 | 1022.4 |
| 20260830164626 | 79 | 220 | 1.0 | 2.0 | 0.00 | 0.01 | 0.01 | 70 | 1022.4 |
| 20260830164542 | 79 | 220 | 1.0 | 2.0 | 0.00 | 0.01 | 0.01 | 70 | 1022.4 |
| 20260830164417 | 79 | 191 | 2.0 | 2.0 | 0.00 | 0.01 | 0.01 | 70 | 1022.4 |
| 20260830164329 | 78 | 174 | 1.0 | 2.0 | 0.00 | 0.01 | 0.01 | 70 | 1022.2 |
| 20260830164225 | 78 | 173 | 1.0 | 1.0 | 0.00 | 0.01 | 0.01 | 70 | 1022.4 |
| 20260830164120 | 78 | 177 | 1.0 | 1.0 | 0.00 | 0.01 | 0.01 | 70 | 1022.4 |
| 20260830164036 | 78 | 184 | 1.0 | 2.0 | 0.00 | 0.01 | 0.01 | 70 | 1022.4 |
| 20260830163927 | 78 | 208 | 1.0 | 2.0 | 0.00 | 0.01 | 0.01 | 70 | 1022.3 |
| 20260830163823 | 78 | 239 | 1.0 | 2.0 | 0.01 | 0.01 | 0.01 | 70 | 1022.3 |
| 20260830163718 | 78 | 240 | 1.0 | 2.0 | 0.01 | 0.01 | 0.01 | 70 | 1022.4 |
| 20260830163630 | 78 | 173 | 1.0 | 1.0 | 0.01 | 0.01 | 0.01 | 70 | 1022.4 |
| 20260830163541 | 78 | 173 | 0.0 | 2.0 | 0.01 | 0.01 | 0.01 | 70 | 1022.4 |
| 20260830163317 | 78 | 193 | 1.0 | 2.0 | 0.01 | 0.01 | 0.01 | 70 | 1022.5 |
| 20260830163248 | 78 | 213 | 1.0 | 2.0 | 0.01 | 0.01 | 0.01 | 70 | 1022.7 |
| 20260830163124 | 78 | 249 | 1.0 | 1.0 | 0.01 | 0.01 | 0.01 | 69 | 1022.7 |
| 20260830163019 | 78 | 249 | 2.0 | 3.0 | 0.01 | 0.01 | 0.01 | 69 | 1022.7 |
| 20260830162915 | 78 | 226 | 2.0 | 3.0 | 0.01 | 0.01 | 0.01 | 69 | 1022.5 |
| 20260830162826 | 78 | 165 | 1.0 | 3.0 | 0.01 | 0.01 | 0.01 | 70 | 1022.6 |
| 20260830162722 | 78 | 225 | 2.0 | 4.0 | 0.01 | 0.01 | 0.01 | 70 | 1022.6 |
| 20260830162618 | 78 | 237 | 3.0 | 4.0 | 0.01 | 0.01 | 0.01 | 70 | 1022.7 |
| 20260830162530 | 77 | 200 | 1.0 | 2.0 | 0.01 | 0.01 | 0.01 | 70 | 1022.6 |
| 20260830162445 | 77 | 168 | 1.0 | 2.0 | 0.01 | 0.01 | 0.01 | 70 | 1022.7 |
| 20260830162321 | 77 | 156 | 2.0 | 3.0 | 0.01 | 0.01 | 0.01 | 70 | 1022.7 |
| 20260830162216 | 77 | 162 | 1.0 | 2.0 | 0.01 | 0.01 | 0.01 | 70 | 1022.7 |
| 20260830162148 | 77 | 169 | 1.0 | 2.0 | 0.01 | 0.01 | 0.01 | 69 | 1022.7 |
| 20260830162023 | 77 | 193 | 1.0 | 2.0 | 0.01 | 0.01 | 0.01 | 70 | 1022.8 |
| 20260830161918 | 77 | 204 | 1.0 | 2.0 | 0.01 | 0.01 | 0.01 | 70 | 1022.8 |
| 20260830161850 | 77 | 210 | 0.0 | 1.0 | 0.01 | 0.01 | 0.01 | 70 | 1022.9 |
| 20260830161745 | 77 | 209 | 0.0 | 1.0 | 0.01 | 0.01 | 0.01 | 70 | 1022.8 |
| 20260830161621 | 77 | 209 | 1.0 | 2.0 | 0.01 | 0.01 | 0.01 | 71 | 1022.8 |
| 20260830161516 | 77 | 212 | 1.0 | 2.0 | 0.01 | 0.01 | 0.01 | 72 | 1022.9 |
| 20260830161427 | 77 | 208 | 1.0 | 2.0 | 0.01 | 0.01 | 0.01 | 72 | 1022.8 |
| 20260830161322 | 77 | 201 | 1.0 | 2.0 | 0.01 | 0.01 | 0.01 | 73 | 1022.9 |
| 20260830161218 | 76 | 165 | 1.0 | 2.0 | 0.01 | 0.01 | 0.01 | 72 | 1023.0 |
| 20260830161129 | 76 | 154 | 1.0 | 1.0 | 0.01 | 0.01 | 0.01 | 72 | 1022.9 |
| 20260830161025 | 76 | 153 | 1.0 | 1.0 | 0.01 | 0.01 | 0.01 | 72 | 1022.9 |
| 20260830161001 | 76 | 152 | 1.0 | 1.0 | 0.01 | 0.01 | 0.01 | 71 | 1022.9 |
| 20260830160816 | 76 | 152 | 0.0 | 1.0 | 0.01 | 0.01 | 0.01 | 71 | 1022.9 |
| 20260830160748 | 76 | 0.0 | 0.0 | 0.01 | 0.01 | 0.01 | 70 | 1023.0 | |
| 20260830160624 | 76 | 0.0 | 0.0 | 0.01 | 0.01 | 0.01 | 70 | 1022.9 | |
| 20260830160519 | 76 | 0.0 | 0.0 | 0.01 | 0.01 | 0.01 | 70 | 1023.0 | |
| 20260830160506 | 76 | 152 | 0.0 | 1.0 | 0.01 | 0.01 | 0.01 | 70 | 1022.9 |
| 20260830160446 | 76 | 152 | 0.0 | 1.0 | 0.01 | 0.01 | 0.01 | 70 | 1023.1 |
| 20260830160222 | 76 | 0.0 | 0.0 | 0.01 | 0.01 | 0.01 | 70 | 1023.2 | |
| 20260830160117 | 76 | 0.0 | 0.0 | 0.01 | 0.01 | 0.01 | 69 | 1023.2 | |
| 20260830160029 | 76 | 152 | 0.0 | 1.0 | 0.01 | 0.01 | 0.01 | 69 | 1023.2 |
| 20260830155944 | 76 | 0.0 | 0.0 | 0.01 | 0.01 | 0.01 | 69 | 1023.2 | |
| 20260830155840 | 76 | 0.0 | 0.0 | 0.01 | 0.01 | 0.01 | 69 | 1023.1 | |
| 20260830155716 | 76 | 152 | 0.0 | 1.0 | 0.01 | 0.01 | 0.01 | 68 | 1023.0 |
| 20260830155628 | 76 | 0.0 | 0.0 | 0.01 | 0.01 | 0.01 | 68 | 1023.1 | |
| 20260830155523 | 76 | 0.0 | 0.0 | 0.01 | 0.01 | 0.01 | 67 | 1023.1 | |
| 20260830155458 | 76 | 0.0 | 0.0 | 0.01 | 0.01 | 0.01 | 67 | 1023.2 | |
| 20260830155330 | 76 | 0.0 | 0.0 | 0.01 | 0.01 | 0.01 | 67 | 1023.2 | |
| 20260830155226 | 76 | 0.0 | 0.0 | 0.01 | 0.01 | 0.01 | 67 | 1023.1 | |
| 20260830155122 | 76 | 0.0 | 0.0 | 0.01 | 0.01 | 0.01 | 67 | 1023.1 | |
| 20260830155017 | 77 | 0.0 | 0.0 | 0.01 | 0.01 | 0.01 | 67 | 1023.1 | |
| 20260830154929 | 77 | 152 | 0.0 | 1.0 | 0.01 | 0.01 | 0.01 | 66 | 1023.2 |
| 20260830154824 | 77 | 152 | 1.0 | 2.0 | 0.01 | 0.01 | 0.01 | 66 | 1023.1 |
| 20260830154720 | 77 | 155 | 2.0 | 3.0 | 0.01 | 0.01 | 0.01 | 66 | 1023.4 |
| 20260830154615 | 77 | 158 | 0.0 | 1.0 | 0.01 | 0.01 | 0.01 | 65 | 1023.2 |
| 20260830154527 | 78 | 158 | 0.0 | 1.0 | 0.01 | 0.01 | 0.01 | 64 | 1023.3 |
| 20260830154422 | 78 | 158 | 0.0 | 1.0 | 0.01 | 0.01 | 0.01 | 63 | 1023.1 |
| 20260830154338 | 78 | 158 | 1.0 | 2.0 | 0.01 | 0.01 | 0.01 | 62 | 1023.3 |
| 20260830154230 | 79 | 155 | 1.0 | 3.0 | 0.01 | 0.01 | 0.01 | 62 | 1023.3 |
| 20260830154145 | 79 | 175 | 2.0 | 3.0 | 0.01 | 0.01 | 0.01 | 63 | 1023.3 |
| 20260830154021 | 80 | 177 | 1.0 | 2.0 | 0.01 | 0.01 | 0.01 | 62 | 1023.5 |
| 20260830153916 | 80 | 216 | 2.0 | 6.0 | 0.00 | 0.00 | 0.00 | 60 | 1023.2 |
| 20260830153828 | 80 | 196 | 4.0 | 7.0 | 0.00 | 0.00 | 0.00 | 59 | 1023.3 |
| 20260830153723 | 80 | 213 | 1.0 | 2.0 | 0.00 | 0.00 | 0.00 | 59 | 1023.3 |
| 20260830153619 | 80 | 220 | 0.0 | 1.0 | 0.00 | 0.00 | 0.00 | 58 | 1023.3 |
| 20260830153530 | 81 | 231 | 4.0 | 9.0 | 0.00 | 0.00 | 0.00 | 58 | 1023.4 |
| 20260830153446 | 81 | 232 | 0.0 | 1.0 | 0.00 | 0.00 | 0.00 | 59 | 1023.2 |
| 20260830153322 | 81 | 239 | 2.0 | 2.0 | 0.00 | 0.00 | 0.00 | 60 | 1023.2 |
| 20260830153217 | 80 | 236 | 1.0 | 2.0 | 0.00 | 0.00 | 0.00 | 61 | 1023.3 |
| 20260830153129 | 80 | 240 | 0.0 | 1.0 | 0.00 | 0.00 | 0.00 | 61 | 1023.2 |
| 20260830153024 | 80 | 240 | 1.0 | 2.0 | 0.00 | 0.00 | 0.00 | 61 | 1023.3 |
| 20260830152920 | 80 | 210 | 1.0 | 2.0 | 0.00 | 0.00 | 0.00 | 61 | 1023.2 |
| 20260830152816 | 80 | 188 | 0.0 | 1.0 | 0.00 | 0.00 | 0.00 | 61 | 1023.1 |
| 20260830152727 | 80 | 188 | 1.0 | 2.0 | 0.00 | 0.00 | 0.00 | 61 | 1023.2 |
| 20260830152643 | 80 | 188 | 1.0 | 2.0 | 0.00 | 0.00 | 0.00 | 60 | 1023.1 |
| 20260830152518 | 80 | 180 | 1.0 | 2.0 | 0.00 | 0.00 | 0.00 | 60 | 1023.1 |
| 20260830152430 | 79 | 162 | 1.0 | 2.0 | 0.00 | 0.00 | 0.00 | 60 | 1023.2 |
| 20260830152406 | 79 | 151 | 1.0 | 2.0 | 0.00 | 0.00 | 0.00 | 60 | 1023.2 |
| 20260830152221 | 79 | 153 | 2.0 | 3.0 | 0.00 | 0.00 | 0.00 | 61 | 1023.1 |
| 20260830152117 | 79 | 217 | 1.0 | 3.0 | 0.00 | 0.00 | 0.00 | 62 | 1023.1 |
| 20260830152029 | 79 | 244 | 3.0 | 4.0 | 0.00 | 0.00 | 0.00 | 61 | 1023.2 |
| 20260830151924 | 79 | 282 | 1.0 | 2.0 | 0.00 | 0.00 | 0.00 | 61 | 1023.2 |
| 20260830151840 | 79 | 161 | 0.0 | 1.0 | 0.00 | 0.00 | 0.00 | 60 | 1023.2 |
| 20260830151716 | 79 | 161 | 1.0 | 1.0 | 0.00 | 0.00 | 0.00 | 60 | 1023.3 |
| 20260830151627 | 79 | 161 | 1.0 | 2.0 | 0.00 | 0.00 | 0.00 | 59 | 1023.2 |
| 20260830151522 | 79 | 165 | 1.0 | 2.0 | 0.00 | 0.00 | 0.00 | 58 | 1023.3 |
| 20260830151438 | 79 | 166 | 2.0 | 4.0 | 0.00 | 0.00 | 0.00 | 59 | 1023.3 |
| 20260830151329 | 79 | 210 | 0.0 | 2.0 | 0.00 | 0.00 | 0.00 | 59 | 1023.3 |
| 20260830151225 | 79 | 202 | 2.0 | 3.0 | 0.00 | 0.00 | 0.00 | 58 | 1023.2 |
| 20260830151120 | 79 | 173 | 1.0 | 1.0 | 0.00 | 0.00 | 0.00 | 58 | 1023.3 |
| 20260830151016 | 79 | 179 | 1.0 | 2.0 | 0.00 | 0.00 | 0.00 | 58 | 1023.4 |
| 20260830150948 | 79 | 240 | 2.0 | 3.0 | 0.00 | 0.00 | 0.00 | 57 | 1023.3 |
| 20260830150843 | 79 | 171 | 2.0 | 4.0 | 0.00 | 0.00 | 0.00 | 57 | 1023.3 |
| 20260830150719 | 80 | 198 | 4.0 | 6.0 | 0.00 | 0.00 | 0.00 | 57 | 1023.4 |
| 20260830150631 | 80 | 186 | 2.0 | 3.0 | 0.00 | 0.00 | 0.00 | 57 | 1023.4 |
| 20260830150527 | 80 | 148 | 2.0 | 3.0 | 0.00 | 0.00 | 0.00 | 57 | 1023.3 |
| 20260830150422 | 80 | 235 | 1.0 | 2.0 | 0.00 | 0.00 | 0.00 | 57 | 1023.6 |
| 20260830150337 | 80 | 241 | 2.0 | 3.0 | 0.00 | 0.00 | 0.00 | 56 | 1023.7 |
| 20260830150229 | 80 | 224 | 4.0 | 9.0 | 0.00 | 0.00 | 0.00 | 55 | 1023.6 |
| 20260830150125 | 80 | 216 | 5.0 | 9.0 | 0.00 | 0.00 | 0.00 | 55 | 1023.5 |
| 20260830150040 | 81 | 235 | 3.0 | 9.0 | 0.00 | 0.00 | 0.00 | 55 | 1023.5 |
| 20260830145936 | 81 | 206 | 4.0 | 6.0 | 0.00 | 0.00 | 0.00 | 55 | 1023.6 |
| 20260830145828 | 81 | 263 | 2.0 | 3.0 | 0.00 | 0.00 | 0.00 | 56 | 1023.4 |
| 20260830145803 | 81 | 241 | 2.0 | 3.0 | 0.00 | 0.00 | 0.00 | 55 | 1023.4 |
| 20260830145619 | 81 | 229 | 5.0 | 6.0 | 0.00 | 0.00 | 0.00 | 53 | 1023.6 |
| 20260830145551 | 81 | 236 | 4.0 | 8.0 | 0.00 | 0.00 | 0.00 | 55 | 1023.5 |
| 20260830145426 | 81 | 234 | 2.0 | 3.0 | 0.00 | 0.00 | 0.00 | 56 | 1023.5 |
| 20260830145322 | 81 | 243 | 4.0 | 9.0 | 0.00 | 0.00 | 0.00 | 57 | 1023.5 |
| 20260830145238 | 81 | 234 | 2.0 | 3.0 | 0.00 | 0.00 | 0.00 | 57 | 1023.7 |
| 20260830145129 | 81 | 209 | 2.0 | 3.0 | 0.00 | 0.00 | 0.00 | 57 | 1023.5 |
| 20260830145025 | 81 | 150 | 2.0 | 3.0 | 0.00 | 0.00 | 0.00 | 56 | 1023.6 |
| 20260830144920 | 81 | 217 | 2.0 | 4.0 | 0.00 | 0.00 | 0.00 | 56 | 1023.6 |
| 20260830144856 | 81 | 268 | 2.0 | 4.0 | 0.00 | 0.00 | 0.00 | 55 | 1023.4 |
| 20260830144728 | 81 | 230 | 4.0 | 6.0 | 0.00 | 0.00 | 0.00 | 56 | 1023.6 |
| 20260830144623 | 81 | 251 | 4.0 | 7.0 | 0.00 | 0.00 | 0.00 | 58 | 1023.5 |
| 20260830144519 | 81 | 189 | 1.0 | 3.0 | 0.00 | 0.00 | 0.00 | 58 | 1023.6 |
| 20260830144430 | 81 | 198 | 2.0 | 3.0 | 0.00 | 0.00 | 0.00 | 58 | 1023.7 |
| 20260830144326 | 81 | 235 | 1.0 | 3.0 | 0.00 | 0.00 | 0.00 | 58 | 1023.6 |
| 20260830144221 | 81 | 165 | 1.0 | 2.0 | 0.00 | 0.00 | 0.00 | 58 | 1023.5 |
| 20260830144117 | 81 | 196 | 3.0 | 6.0 | 0.00 | 0.00 | 0.00 | 57 | 1023.5 |
| 20260830144029 | 81 | 186 | 3.0 | 7.0 | 0.00 | 0.00 | 0.00 | 57 | 1023.4 |
| 20260830143924 | 81 | 201 | 3.0 | 8.0 | 0.00 | 0.00 | 0.00 | 58 | 1023.3 |
| 20260830143820 | 80 | 225 | 2.0 | 7.0 | 0.00 | 0.00 | 0.00 | 58 | 1023.5 |
| 20260830143736 | 80 | 246 | 3.0 | 6.0 | 0.00 | 0.00 | 0.00 | 57 | 1023.4 |
| 20260830143627 | 80 | 199 | 1.0 | 3.0 | 0.00 | 0.00 | 0.00 | 57 | 1023.5 |
| 20260830143523 | 80 | 146 | 1.0 | 3.0 | 0.00 | 0.00 | 0.00 | 57 | 1023.5 |
| 20260830143419 | 80 | 145 | 1.0 | 2.0 | 0.00 | 0.00 | 0.00 | 56 | 1023.5 |
| 20260830143330 | 81 | 153 | 2.0 | 4.0 | 0.00 | 0.00 | 0.00 | 56 | 1023.4 |
| 20260830143226 | 81 | 202 | 3.0 | 4.0 | 0.00 | 0.00 | 0.00 | 57 | 1023.4 |
| 20260830143121 | 81 | 221 | 3.0 | 6.0 | 0.00 | 0.00 | 0.00 | 57 | 1023.4 |
| 20260830143015 | 81 | 210 | 3.0 | 6.0 | 0.00 | 0.00 | 0.00 | 56 | 1023.4 |
| 20260830142946 | 81 | 201 | 3.0 | 6.0 | 0.00 | 0.00 | 0.00 | 56 | 1023.5 |
| 20260830142822 | 81 | 166 | 3.0 | 4.0 | 0.00 | 0.00 | 0.00 | 56 | 1023.5 |
| 20260830142737 | 81 | 174 | 2.0 | 6.0 | 0.00 | 0.00 | 0.00 | 56 | 1023.5 |
| 20260830142629 | 81 | 241 | 1.0 | 2.0 | 0.00 | 0.00 | 0.00 | 56 | 1023.5 |
| 20260830142524 | 81 | 175 | 2.0 | 4.0 | 0.00 | 0.00 | 0.00 | 56 | 1023.4 |
| 20260830142420 | 81 | 221 | 2.0 | 2.0 | 0.00 | 0.00 | 0.00 | 56 | 1023.7 |
| 20260830142315 | 81 | 220 | 4.0 | 7.0 | 0.00 | 0.00 | 0.00 | 55 | 1023.5 |
| 20260830142227 | 81 | 216 | 4.0 | 7.0 | 0.00 | 0.00 | 0.00 | 55 | 1023.5 |
| 20260830142203 | 81 | 186 | 1.0 | 3.0 | 0.00 | 0.00 | 0.00 | 54 | 1023.7 |
| 20260830142018 | 82 | 166 | 2.0 | 4.0 | 0.00 | 0.00 | 0.00 | 54 | 1023.7 |
| 20260830141950 | 82 | 195 | 3.0 | 4.0 | 0.00 | 0.00 | 0.00 | 55 | 1023.6 |
| 20260830141825 | 82 | 202 | 1.0 | 3.0 | 0.00 | 0.00 | 0.00 | 56 | 1023.7 |
| 20260830141741 | 81 | 161 | 2.0 | 2.0 | 0.00 | 0.00 | 0.00 | 57 | 1023.7 |
| 20260830141616 | 81 | 168 | 1.0 | 2.0 | 0.00 | 0.00 | 0.00 | 57 | 1023.6 |
| 20260830141528 | 81 | 144 | 1.0 | 2.0 | 0.00 | 0.00 | 0.00 | 56 | 1023.7 |
| 20260830141423 | 81 | 193 | 2.0 | 3.0 | 0.00 | 0.00 | 0.00 | 56 | 1023.7 |
| 20260830141339 | 81 | 163 | 2.0 | 4.0 | 0.00 | 0.00 | 0.00 | 56 | 1024.0 |
| 20260830141231 | 81 | 171 | 2.0 | 3.0 | 0.00 | 0.00 | 0.00 | 56 | 1023.6 |
| 20260830141126 | 81 | 203 | 2.0 | 3.0 | 0.00 | 0.00 | 0.00 | 57 | 1023.8 |
| 20260830141022 | 81 | 229 | 3.0 | 4.0 | 0.00 | 0.00 | 0.00 | 56 | 1023.8 |
| 20260830140917 | 81 | 234 | 2.0 | 4.0 | 0.00 | 0.00 | 0.00 | 61 | 1023.8 |
| 20260830140828 | 81 | 208 | 2.0 | 6.0 | 0.00 | 0.00 | 0.00 | 58 | 1023.8 |
| 20260830140724 | 81 | 188 | 1.0 | 3.0 | 0.00 | 0.00 | 0.00 | 56 | 1023.8 |
| 20260830140619 | 81 | 154 | 2.0 | 3.0 | 0.00 | 0.00 | 0.00 | 59 | 1023.8 |
| 20260830140515 | 80 | 184 | 1.0 | 1.0 | 0.00 | 0.00 | 0.00 | 58 | 1023.9 |
| 20260830140427 | 80 | 197 | 2.0 | 2.0 | 0.00 | 0.00 | 0.00 | 59 | 1023.9 |
| 20260830140322 | 80 | 174 | 1.0 | 3.0 | 0.00 | 0.00 | 0.00 | 60 | 1023.7 |
| 20260830140238 | 80 | 196 | 0.0 | 1.0 | 0.00 | 0.00 | 0.00 | 63 | 1023.7 |
| 20260830140129 | 80 | 196 | 0.0 | 1.0 | 0.00 | 0.00 | 0.00 | 62 | 1023.6 |
| 20260830140025 | 79 | 196 | 1.0 | 2.0 | 0.00 | 0.00 | 0.00 | 62 | 1023.8 |
| 20260830135921 | 79 | 198 | 1.0 | 1.0 | 0.00 | 0.00 | 0.00 | 63 | 1023.8 |
| 20260830135816 | 79 | 197 | 1.0 | 2.0 | 0.00 | 0.00 | 0.00 | 63 | 1023.8 |
| 20260830135747 | 78 | 178 | 1.0 | 1.0 | 0.00 | 0.00 | 0.00 | 62 | 1023.9 |
| 20260830135623 | 78 | 152 | 1.0 | 3.0 | 0.00 | 0.00 | 0.00 | 61 | 1023.8 |
| 20260830135518 | 78 | 214 | 1.0 | 1.0 | 0.00 | 0.00 | 0.00 | 64 | 1023.8 |
| 20260830135430 | 77 | 183 | 1.0 | 2.0 | 0.00 | 0.00 | 0.00 | 62 | 1023.7 |
| 20260830135325 | 77 | 133 | 1.0 | 2.0 | 0.00 | 0.00 | 0.00 | 62 | 1023.9 |
| 20260830135221 | 76 | 224 | 1.0 | 1.0 | 0.00 | 0.00 | 0.00 | 64 | 1023.8 |
| 20260830135117 | 76 | 224 | 1.0 | 2.0 | 0.00 | 0.00 | 0.00 | 64 | 1024.0 |
| 20260830135029 | 76 | 251 | 1.0 | 2.0 | 0.00 | 0.00 | 0.00 | 65 | 1023.7 |
| 20260830134944 | 76 | 257 | 0.0 | 1.0 | 0.00 | 0.00 | 0.00 | 65 | 1023.9 |
| 20260830134820 | 76 | 257 | 1.0 | 1.0 | 0.00 | 0.00 | 0.00 | 65 | 1023.9 |
| 20260830134735 | 75 | 257 | 2.0 | 2.0 | 0.00 | 0.00 | 0.00 | 66 | 1023.8 |
| 20260830134627 | 75 | 258 | 1.0 | 2.0 | 0.00 | 0.00 | 0.00 | 65 | 1023.9 |
| 20260830134522 | 75 | 258 | 1.0 | 2.0 | 0.00 | 0.00 | 0.00 | 64 | 1023.9 |
| 20260830134418 | 75 | 259 | 1.0 | 2.0 | 0.00 | 0.00 | 0.00 | 64 | 1024.0 |
| 20260830134330 | 75 | 267 | 0.0 | 1.0 | 0.00 | 0.00 | 0.00 | 65 | 1024.0 |
| 20260830134245 | 75 | 267 | 1.0 | 2.0 | 0.00 | 0.00 | 0.00 | 64 | 1024.0 |
| 20260830134121 | 75 | 259 | 1.0 | 3.0 | 0.00 | 0.00 | 0.00 | 64 | 1024.1 |
| 20260830134017 | 74 | 223 | 1.0 | 1.0 | 0.00 | 0.00 | 0.00 | 64 | 1023.8 |
| 20260830133928 | 74 | 227 | 0.0 | 2.0 | 0.00 | 0.00 | 0.00 | 65 | 1024.0 |
| 20260830133824 | 74 | 210 | 1.0 | 2.0 | 0.00 | 0.00 | 0.00 | 64 | 1024.0 |
| 20260830133719 | 74 | 146 | 1.0 | 2.0 | 0.00 | 0.00 | 0.00 | 64 | 1024.1 |
| 20260830133615 | 74 | 136 | 2.0 | 2.0 | 0.00 | 0.00 | 0.00 | 65 | 1024.1 |
| 20260830133546 | 74 | 141 | 1.0 | 2.0 | 0.00 | 0.00 | 0.00 | 66 | 1023.9 |
| 20260830133422 | 74 | 142 | 0.0 | 1.0 | 0.00 | 0.00 | 0.00 | 65 | 1024.0 |
| 20260830133317 | 74 | 0.0 | 0.0 | 0.00 | 0.00 | 0.00 | 66 | 1024.1 | |
| 20260830133249 | 74 | 135 | 1.0 | 1.0 | 0.00 | 0.00 | 0.00 | 65 | 1024.2 |
| 20260830133125 | 74 | 134 | 0.0 | 1.0 | 0.00 | 0.00 | 0.00 | 66 | 1024.2 |
| 20260830133100 | 73 | 0.0 | 0.0 | 0.00 | 0.00 | 0.00 | 66 | 1024.2 | |
| 20260830132916 | 73 | 134 | 1.0 | 2.0 | 0.00 | 0.00 | 0.00 | 66 | 1024.4 |
| 20260830132847 | 73 | 181 | 0.0 | 1.0 | 0.00 | 0.00 | 0.00 | 66 | 1024.2 |
| 20260830132723 | 73 | 182 | 0.0 | 1.0 | 0.00 | 0.00 | 0.00 | 66 | 1024.3 |
| 20260830132619 | 73 | 181 | 1.0 | 2.0 | 0.00 | 0.00 | 0.00 | 66 | 1024.3 |
| 20260830132550 | 73 | 182 | 0.0 | 1.0 | 0.00 | 0.00 | 0.00 | 65 | 1024.4 |